Puerto Banus, Marbella

>

This is an optional block (switch it off / on) in the settings - file ($SITE['banners'] = false;)

You can display ads, any other important text or photo’s using text / html or PHP code.

You can place one or more at the top and or bottom and it can all be different for content / size .



Meteosat more information blitzortung!


Radar lluvias  rain snow radar


Visita nuestra red de sitios de meteo:

Documentation for the template used

MeteoibericaRed estaciones Meteorologicas

MeteoclimaticRed estaciones Meteorologicas



Viento Desde: 19-04-2018 23:00 Hasta: 21-04-2018 04:59 Advertencias para: Viento Nivel: Amarillo info button

Pagina Historial Weather Underground texto

Diario Resumen Diciembre 31, 2017 Unidades:  Tanto    impérial   Métrico
« Anterior Dia
Siguiente Dia »
Diario Semana Mensual Anual Personalizada
  Maxima: Minima: Media:
Temperatura: TemperatureC °F /  -17.8 °C 11.4 °F /  -11.4 °C 15.3 °F /  -9.3 °C
Punto de rocío: DewpointC °F /  -17.8 °C 8.2 °F /  -13.2 °C 10.3 °F /  -12.1 °C
Humedad: Humidity % 54 % 72 %
Velocidad del Viento: WindSpeedKMH mph /  0 km/h - 14.6 mph /  23.5 km/h
Ráfagas de viento: WindSpeedGustKMH mph /  0 km/h - -
Viento:- - West
Pression baro: PressurehPa in /  0 hPa 1023.9 in /  34669.3 hPa -
Précipitaciones: 0.0 in /  0 mm    
Historical Graphs
 
 
Datos de tabla para Diciembre 31, 2017
Tiempo Temperatura Punto de rocío Pression baro Viento Velocidad del Viento Ráfagas de viento Humedad Las precipitaciones Rate ( Hora )
TemperatureC °F /  -17.8 °C DewpointC °F /  -17.8 °C PressurehPa in /  0 hPa Calm     Humidity % HourlyPrecipMM in /  0 mm
00:03 13.0 °F /  -10.6 °C 10.2 °F /  -12.1 °C 1025.6 in /  34726.8 hPa North 9.3 mph /  15 km/h 9.3 mph /  15 km/h 83 % 0.0 in /  0 mm
00:04 13.0 °F /  -10.6 °C 10.2 °F /  -12.1 °C 1025.6 in /  34726.8 hPa North 11.1 mph /  17.9 km/h 11.1 mph /  17.9 km/h 83 % 0.0 in /  0 mm
00:09 13.1 °F /  -10.5 °C 10.1 °F /  -12.2 °C 1025.6 in /  34726.8 hPa North 14.8 mph /  23.8 km/h 14.8 mph /  23.8 km/h 82 % 0.0 in /  0 mm
00:11 13.1 °F /  -10.5 °C 10.1 °F /  -12.2 °C 1025.6 in /  34726.8 hPa North 13.0 mph /  20.9 km/h 13.0 mph /  20.9 km/h 82 % 0.0 in /  0 mm
00:15 13.2 °F /  -10.4 °C 10.2 °F /  -12.1 °C 1025.6 in /  34726.8 hPa North 11.1 mph /  17.9 km/h 11.1 mph /  17.9 km/h 82 % 0.0 in /  0 mm
00:16 13.2 °F /  -10.4 °C 10.2 °F /  -12.1 °C 1025.6 in /  34726.8 hPa North 13.0 mph /  20.9 km/h 13.0 mph /  20.9 km/h 82 % 0.0 in /  0 mm
00:21 13.1 °F /  -10.5 °C 10.1 °F /  -12.2 °C 1025.6 in /  34726.8 hPa North 13.0 mph /  20.9 km/h 13.0 mph /  20.9 km/h 82 % 0.0 in /  0 mm
00:22 13.1 °F /  -10.5 °C 10.1 °F /  -12.2 °C 1025.6 in /  34726.8 hPa North 13.0 mph /  20.9 km/h 13.0 mph /  20.9 km/h 82 % 0.0 in /  0 mm
00:26 13.1 °F /  -10.5 °C 10.1 °F /  -12.2 °C 1025.6 in /  34726.8 hPa North 13.0 mph /  20.9 km/h 13.0 mph /  20.9 km/h 82 % 0.0 in /  0 mm
00:28 13.1 °F /  -10.5 °C 10.1 °F /  -12.2 °C 1025.6 in /  34726.8 hPa NNW 13.0 mph /  20.9 km/h 13.0 mph /  20.9 km/h 82 % 0.0 in /  0 mm
00:33 13.0 °F /  -10.6 °C 10.0 °F /  -12.2 °C 1025.6 in /  34726.8 hPa North 11.1 mph /  17.9 km/h 11.1 mph /  17.9 km/h 82 % 0.0 in /  0 mm
00:34 13.0 °F /  -10.6 °C 10.0 °F /  -12.2 °C 1025.6 in /  34726.8 hPa North 11.1 mph /  17.9 km/h 11.1 mph /  17.9 km/h 82 % 0.0 in /  0 mm
00:39 13.0 °F /  -10.6 °C 10.0 °F /  -12.2 °C 1025.6 in /  34726.8 hPa North 9.3 mph /  15 km/h 9.3 mph /  15 km/h 82 % 0.0 in /  0 mm
00:44 13.1 °F /  -10.5 °C 9.9 °F /  -12.3 °C 1025.6 in /  34726.8 hPa North 11.1 mph /  17.9 km/h 11.1 mph /  17.9 km/h 81 % 0.0 in /  0 mm
00:48 13.1 °F /  -10.5 °C 9.9 °F /  -12.3 °C 1025.6 in /  34726.8 hPa North 11.3 mph /  18.2 km/h 11.3 mph /  18.2 km/h 81 % 0.0 in /  0 mm
00:53 13.1 °F /  -10.5 °C 9.9 °F /  -12.3 °C 1025.6 in /  34726.8 hPa North 11.3 mph /  18.2 km/h 11.3 mph /  18.2 km/h 81 % 0.0 in /  0 mm
00:54 13.1 °F /  -10.5 °C 9.9 °F /  -12.3 °C 1025.6 in /  34726.8 hPa NNW 11.1 mph /  17.9 km/h 11.1 mph /  17.9 km/h 81 % 0.0 in /  0 mm
00:59 13.1 °F /  -10.5 °C 9.9 °F /  -12.3 °C 1025.6 in /  34726.8 hPa NNW 9.7 mph /  15.6 km/h 9.7 mph /  15.6 km/h 81 % 0.0 in /  0 mm
01:00 13.1 °F /  -10.5 °C 9.9 °F /  -12.3 °C 1025.6 in /  34726.8 hPa NNW 9.7 mph /  15.6 km/h 9.7 mph /  15.6 km/h 81 % 0.0 in /  0 mm
01:01 13.1 °F /  -10.5 °C 9.9 °F /  -12.3 °C 1025.6 in /  34726.8 hPa North 11.1 mph /  17.9 km/h 11.1 mph /  17.9 km/h 81 % 0.0 in /  0 mm
01:06 13.1 °F /  -10.5 °C 9.9 °F /  -12.3 °C 1025.3 in /  34716.7 hPa North 11.1 mph /  17.9 km/h 11.1 mph /  17.9 km/h 81 % 0.0 in /  0 mm
01:11 13.1 °F /  -10.5 °C 9.9 °F /  -12.3 °C 1025.6 in /  34726.8 hPa NNW 9.3 mph /  15 km/h 9.3 mph /  15 km/h 81 % 0.0 in /  0 mm
01:12 13.1 °F /  -10.5 °C 9.9 °F /  -12.3 °C 1025.6 in /  34726.8 hPa NNW 9.3 mph /  15 km/h 9.3 mph /  15 km/h 81 % 0.0 in /  0 mm
01:13 13.1 °F /  -10.5 °C 9.9 °F /  -12.3 °C 1025.6 in /  34726.8 hPa NNW 9.7 mph /  15.6 km/h 9.7 mph /  15.6 km/h 81 % 0.0 in /  0 mm
01:17 13.2 °F /  -10.4 °C 10.0 °F /  -12.2 °C 1025.6 in /  34726.8 hPa North 5.6 mph /  9 km/h 5.6 mph /  9 km/h 81 % 0.0 in /  0 mm
01:22 13.2 °F /  -10.4 °C 9.8 °F /  -12.3 °C 1025.3 in /  34716.7 hPa North 9.3 mph /  15 km/h 9.3 mph /  15 km/h 80 % 0.0 in /  0 mm
01:24 13.2 °F /  -10.4 °C 9.8 °F /  -12.3 °C 1025.3 in /  34716.7 hPa North 9.7 mph /  15.6 km/h 9.7 mph /  15.6 km/h 80 % 0.0 in /  0 mm
01:25 13.2 °F /  -10.4 °C 9.8 °F /  -12.3 °C 1025.3 in /  34716.7 hPa North 8.0 mph /  12.9 km/h 9.7 mph /  15.6 km/h 80 % 0.0 in /  0 mm
01:30 13.1 °F /  -10.5 °C 9.7 °F /  -12.4 °C 1025.3 in /  34716.7 hPa NNW 8.0 mph /  12.9 km/h 8.0 mph /  12.9 km/h 80 % 0.0 in /  0 mm
01:31 13.0 °F /  -10.6 °C 9.6 °F /  -12.4 °C 1025.3 in /  34716.7 hPa North 9.3 mph /  15 km/h 9.3 mph /  15 km/h 80 % 0.0 in /  0 mm
01:36 12.9 °F /  -10.6 °C 9.7 °F /  -12.4 °C 1025.3 in /  34716.7 hPa NNW 9.3 mph /  15 km/h 9.3 mph /  15 km/h 81 % 0.0 in /  0 mm
01:40 12.8 °F /  -10.7 °C 9.7 °F /  -12.4 °C 1025.6 in /  34726.8 hPa North 9.7 mph /  15.6 km/h 9.7 mph /  15.6 km/h 81 % 0.0 in /  0 mm
01:43 12.8 °F /  -10.7 °C 9.6 °F /  -12.4 °C 1025.6 in /  34726.8 hPa NNW 9.3 mph /  15 km/h 9.3 mph /  15 km/h 81 % 0.0 in /  0 mm
01:45 12.8 °F /  -10.7 °C 9.6 °F /  -12.4 °C 1025.6 in /  34726.8 hPa NNW 9.3 mph /  15 km/h 9.3 mph /  15 km/h 81 % 0.0 in /  0 mm
01:49 12.8 °F /  -10.7 °C 9.6 °F /  -12.4 °C 1025.3 in /  34716.7 hPa NNW 9.3 mph /  15 km/h 9.3 mph /  15 km/h 81 % 0.0 in /  0 mm
01:51 12.8 °F /  -10.7 °C 9.7 °F /  -12.4 °C 1025.3 in /  34716.7 hPa North 7.4 mph /  11.9 km/h 7.4 mph /  11.9 km/h 81 % 0.0 in /  0 mm
01:54 12.8 °F /  -10.7 °C 9.6 °F /  -12.4 °C 1025.3 in /  34716.7 hPa NNW 11.1 mph /  17.9 km/h 11.1 mph /  17.9 km/h 81 % 0.0 in /  0 mm
01:56 12.8 °F /  -10.7 °C 9.6 °F /  -12.4 °C 1025.3 in /  34716.7 hPa North 13.0 mph /  20.9 km/h 13.0 mph /  20.9 km/h 81 % 0.0 in /  0 mm
02:01 12.7 °F /  -10.7 °C 9.6 °F /  -12.4 °C 1025.3 in /  34716.7 hPa North 9.7 mph /  15.6 km/h 9.7 mph /  15.6 km/h 81 % 0.0 in /  0 mm
02:02 12.7 °F /  -10.7 °C 9.6 °F /  -12.4 °C 1025.3 in /  34716.7 hPa North 9.7 mph /  15.6 km/h 9.7 mph /  15.6 km/h 81 % 0.0 in /  0 mm
02:07 12.6 °F /  -10.8 °C 9.4 °F /  -12.6 °C 1025.3 in /  34716.7 hPa North 13.0 mph /  20.9 km/h 13.0 mph /  20.9 km/h 81 % 0.0 in /  0 mm
02:08 12.6 °F /  -10.8 °C 9.4 °F /  -12.6 °C 1025.3 in /  34716.7 hPa North 13.0 mph /  20.9 km/h 13.0 mph /  20.9 km/h 81 % 0.0 in /  0 mm
02:13 12.5 °F /  -10.8 °C 9.5 °F /  -12.5 °C 1025.3 in /  34716.7 hPa NNW 7.4 mph /  11.9 km/h 7.4 mph /  11.9 km/h 82 % 0.0 in /  0 mm
02:16 12.6 °F /  -10.8 °C 9.6 °F /  -12.4 °C 1025.3 in /  34716.7 hPa NNW 9.7 mph /  15.6 km/h 9.7 mph /  15.6 km/h 82 % 0.0 in /  0 mm
02:20 12.6 °F /  -10.8 °C 9.6 °F /  -12.4 °C 1025.3 in /  34716.7 hPa North 9.3 mph /  15 km/h 9.3 mph /  15 km/h 82 % 0.0 in /  0 mm
02:23 12.5 °F /  -10.8 °C 9.5 °F /  -12.5 °C 1025.3 in /  34716.7 hPa North 9.7 mph /  15.6 km/h 9.7 mph /  15.6 km/h 82 % 0.0 in /  0 mm
02:26 12.4 °F /  -10.9 °C 9.4 °F /  -12.6 °C 1025.3 in /  34716.7 hPa North 11.1 mph /  17.9 km/h 11.1 mph /  17.9 km/h 82 % 0.0 in /  0 mm
02:28 12.4 °F /  -10.9 °C 9.4 °F /  -12.6 °C 1025.3 in /  34716.7 hPa North 9.3 mph /  15 km/h 9.3 mph /  15 km/h 82 % 0.0 in /  0 mm
02:31 12.4 °F /  -10.9 °C 9.4 °F /  -12.6 °C 1025.3 in /  34716.7 hPa North 11.1 mph /  17.9 km/h 11.1 mph /  17.9 km/h 82 % 0.0 in /  0 mm
02:36 12.3 °F /  -10.9 °C 9.3 °F /  -12.6 °C 1025.3 in /  34716.7 hPa North 9.3 mph /  15 km/h 9.3 mph /  15 km/h 82 % 0.0 in /  0 mm
02:41 12.3 °F /  -10.9 °C 9.3 °F /  -12.6 °C 1025.3 in /  34716.7 hPa North 6.4 mph /  10.3 km/h 6.4 mph /  10.3 km/h 82 % 0.0 in /  0 mm
02:42 12.3 °F /  -10.9 °C 9.3 °F /  -12.6 °C 1025.3 in /  34716.7 hPa North 6.4 mph /  10.3 km/h 6.4 mph /  10.3 km/h 82 % 0.0 in /  0 mm
02:44 12.3 °F /  -10.9 °C 9.3 °F /  -12.6 °C 1025.3 in /  34716.7 hPa North 7.4 mph /  11.9 km/h 7.4 mph /  11.9 km/h 82 % 0.0 in /  0 mm
02:47 12.3 °F /  -10.9 °C 9.3 °F /  -12.6 °C 1025.3 in /  34716.7 hPa North 8.0 mph /  12.9 km/h 8.0 mph /  12.9 km/h 82 % 0.0 in /  0 mm
02:52 12.3 °F /  -10.9 °C 9.3 °F /  -12.6 °C 1025.3 in /  34716.7 hPa North 7.4 mph /  11.9 km/h 7.4 mph /  11.9 km/h 82 % 0.0 in /  0 mm
02:53 12.3 °F /  -10.9 °C 9.3 °F /  -12.6 °C 1025.3 in /  34716.7 hPa North 9.3 mph /  15 km/h 9.3 mph /  15 km/h 82 % 0.0 in /  0 mm
02:54 12.3 °F /  -10.9 °C 9.3 °F /  -12.6 °C 1025.3 in /  34716.7 hPa North 9.3 mph /  15 km/h 9.3 mph /  15 km/h 82 % 0.0 in /  0 mm
02:59 12.3 °F /  -10.9 °C 9.3 °F /  -12.6 °C 1025.3 in /  34716.7 hPa NNW 9.3 mph /  15 km/h 9.3 mph /  15 km/h 82 % 0.0 in /  0 mm
03:04 12.3 °F /  -10.9 °C 9.3 °F /  -12.6 °C 1025.3 in /  34716.7 hPa NNW 9.3 mph /  15 km/h 9.3 mph /  15 km/h 82 % 0.0 in /  0 mm
03:05 12.3 °F /  -10.9 °C 9.3 °F /  -12.6 °C 1025.3 in /  34716.7 hPa NNW 11.1 mph /  17.9 km/h 11.1 mph /  17.9 km/h 82 % 0.0 in /  0 mm
03:10 12.3 °F /  -10.9 °C 9.3 °F /  -12.6 °C 1025.3 in /  34716.7 hPa NW 7.4 mph /  11.9 km/h 7.4 mph /  11.9 km/h 82 % 0.0 in /  0 mm
03:11 12.3 °F /  -10.9 °C 9.3 °F /  -12.6 °C 1025.3 in /  34716.7 hPa NW 7.4 mph /  11.9 km/h 7.4 mph /  11.9 km/h 82 % 0.0 in /  0 mm
03:15 12.4 °F /  -10.9 °C 9.4 °F /  -12.6 °C 1025.3 in /  34716.7 hPa NW 7.4 mph /  11.9 km/h 7.4 mph /  11.9 km/h 82 % 0.0 in /  0 mm
03:17 12.4 °F /  -10.9 °C 9.4 °F /  -12.6 °C 1025.3 in /  34716.7 hPa NNW 7.4 mph /  11.9 km/h 7.4 mph /  11.9 km/h 82 % 0.0 in /  0 mm
03:22 12.6 °F /  -10.8 °C 9.6 °F /  -12.4 °C 1025.3 in /  34716.7 hPa NNW 5.6 mph /  9 km/h 5.6 mph /  9 km/h 82 % 0.0 in /  0 mm
03:24 12.6 °F /  -10.8 °C 9.6 °F /  -12.4 °C 1025.3 in /  34716.7 hPa NNW 3.7 mph /  6 km/h   82 % 0.0 in /  0 mm
03:26 12.6 °F /  -10.8 °C 9.6 °F /  -12.4 °C 1025.3 in /  34716.7 hPa Calm     82 % 0.0 in /  0 mm
03:29 12.5 °F /  -10.8 °C 9.5 °F /  -12.5 °C 1025.3 in /  34716.7 hPa NNW 6.4 mph /  10.3 km/h 6.4 mph /  10.3 km/h 82 % 0.0 in /  0 mm
03:34 12.4 °F /  -10.9 °C 9.4 °F /  -12.6 °C 1024.9 in /  34703.1 hPa North 7.4 mph /  11.9 km/h 7.4 mph /  11.9 km/h 82 % 0.0 in /  0 mm
03:35 12.4 °F /  -10.9 °C 9.4 °F /  -12.6 °C 1025.3 in /  34716.7 hPa North 7.4 mph /  11.9 km/h 7.4 mph /  11.9 km/h 82 % 0.0 in /  0 mm
03:40 12.3 °F /  -10.9 °C 9.3 °F /  -12.6 °C 1024.9 in /  34703.1 hPa North 9.7 mph /  15.6 km/h 11.3 mph /  18.2 km/h 82 % 0.0 in /  0 mm
03:41 12.3 °F /  -10.9 °C 9.3 °F /  -12.6 °C 1024.9 in /  34703.1 hPa North 11.1 mph /  17.9 km/h 11.1 mph /  17.9 km/h 82 % 0.0 in /  0 mm
03:46 12.2 °F /  -11 °C 9.2 °F /  -12.7 °C 1024.9 in /  34703.1 hPa NNW 9.3 mph /  15 km/h 9.3 mph /  15 km/h 82 % 0.0 in /  0 mm
03:51 12.1 °F /  -11.1 °C 9.1 °F /  -12.7 °C 1024.9 in /  34703.1 hPa NNW 11.1 mph /  17.9 km/h 11.1 mph /  17.9 km/h 82 % 0.0 in /  0 mm
03:56 12.0 °F /  -11.1 °C 9.2 °F /  -12.7 °C 1024.9 in /  34703.1 hPa NNW 7.4 mph /  11.9 km/h 7.4 mph /  11.9 km/h 83 % 0.0 in /  0 mm
03:57 12.0 °F /  -11.1 °C 9.2 °F /  -12.7 °C 1024.6 in /  34693 hPa North 11.1 mph /  17.9 km/h 11.1 mph /  17.9 km/h 83 % 0.0 in /  0 mm
03:58 12.0 °F /  -11.1 °C 9.2 °F /  -12.7 °C 1024.6 in /  34693 hPa North 11.1 mph /  17.9 km/h 11.1 mph /  17.9 km/h 83 % 0.0 in /  0 mm
04:03 11.9 °F /  -11.2 °C 9.2 °F /  -12.7 °C 1024.6 in /  34693 hPa North 11.1 mph /  17.9 km/h 11.1 mph /  17.9 km/h 83 % 0.0 in /  0 mm
04:07 12.0 °F /  -11.1 °C 9.2 °F /  -12.7 °C 1024.6 in /  34693 hPa North 11.1 mph /  17.9 km/h 11.1 mph /  17.9 km/h 83 % 0.0 in /  0 mm
04:08 12.0 °F /  -11.1 °C 9.2 °F /  -12.7 °C 1024.6 in /  34693 hPa North 9.3 mph /  15 km/h 9.3 mph /  15 km/h 83 % 0.0 in /  0 mm
04:14 12.1 °F /  -11.1 °C 9.3 °F /  -12.6 °C 1024.6 in /  34693 hPa North 7.4 mph /  11.9 km/h 7.4 mph /  11.9 km/h 83 % 0.0 in /  0 mm
04:21 12.1 °F /  -11.1 °C 9.3 °F /  -12.6 °C 1024.6 in /  34693 hPa NNW 9.3 mph /  15 km/h 9.3 mph /  15 km/h 83 % 0.0 in /  0 mm
04:24 12.1 °F /  -11.1 °C 9.3 °F /  -12.6 °C 1024.6 in /  34693 hPa NNW 9.3 mph /  15 km/h 9.3 mph /  15 km/h 83 % 0.0 in /  0 mm
04:29 12.2 °F /  -11 °C 9.4 °F /  -12.6 °C 1024.6 in /  34693 hPa NNW 9.3 mph /  15 km/h 9.3 mph /  15 km/h 83 % 0.0 in /  0 mm
04:34 12.2 °F /  -11 °C 9.4 °F /  -12.6 °C 1024.6 in /  34693 hPa Calm     83 % 0.0 in /  0 mm
04:36 12.2 °F /  -11 °C 9.4 °F /  -12.6 °C 1024.6 in /  34693 hPa Calm   0.2 mph /  0.3 km/h 83 % 0.0 in /  0 mm
04:37 12.2 °F /  -11 °C 9.4 °F /  -12.6 °C 1024.6 in /  34693 hPa NNW 1.9 mph /  3.1 km/h   83 % 0.0 in /  0 mm
04:42 12.2 °F /  -11 °C 9.4 °F /  -12.6 °C 1024.6 in /  34693 hPa NNW 3.7 mph /  6 km/h 3.7 mph /  6 km/h 83 % 0.0 in /  0 mm
04:43 12.2 °F /  -11 °C 9.4 °F /  -12.6 °C 1024.6 in /  34693 hPa NNW 3.7 mph /  6 km/h 3.7 mph /  6 km/h 83 % 0.0 in /  0 mm
04:44 12.2 °F /  -11 °C 9.2 °F /  -12.7 °C 1024.6 in /  34693 hPa NNW 3.7 mph /  6 km/h 3.7 mph /  6 km/h 82 % 0.0 in /  0 mm
04:49 12.2 °F /  -11 °C 9.2 °F /  -12.7 °C 1024.6 in /  34693 hPa NNW 5.6 mph /  9 km/h 5.6 mph /  9 km/h 82 % 0.0 in /  0 mm
04:50 12.2 °F /  -11 °C 9.2 °F /  -12.7 °C 1024.6 in /  34693 hPa NNW 5.6 mph /  9 km/h 5.6 mph /  9 km/h 82 % 0.0 in /  0 mm
04:54 12.2 °F /  -11 °C 9.2 °F /  -12.7 °C 1024.3 in /  34682.8 hPa NNW 11.1 mph /  17.9 km/h 11.1 mph /  17.9 km/h 82 % 0.0 in /  0 mm
04:59 12.2 °F /  -11 °C 9.2 °F /  -12.7 °C 1024.3 in /  34682.8 hPa NNW 9.3 mph /  15 km/h 9.3 mph /  15 km/h 82 % 0.0 in /  0 mm
05:01 12.2 °F /  -11 °C 9.2 °F /  -12.7 °C 1024.3 in /  34682.8 hPa North 9.7 mph /  15.6 km/h 9.7 mph /  15.6 km/h 82 % 0.0 in /  0 mm
05:05 12.2 °F /  -11 °C 9.2 °F /  -12.7 °C 1024.3 in /  34682.8 hPa NNW 7.4 mph /  11.9 km/h 7.4 mph /  11.9 km/h 82 % 0.0 in /  0 mm
05:06 12.2 °F /  -11 °C 9.2 °F /  -12.7 °C 1024.3 in /  34682.8 hPa North 7.4 mph /  11.9 km/h 7.4 mph /  11.9 km/h 82 % 0.0 in /  0 mm
05:11 12.2 °F /  -11 °C 9.2 °F /  -12.7 °C 1024.3 in /  34682.8 hPa North 7.4 mph /  11.9 km/h 7.4 mph /  11.9 km/h 82 % 0.0 in /  0 mm
05:14 12.2 °F /  -11 °C 9.2 °F /  -12.7 °C 1023.9 in /  34669.3 hPa NNW 7.4 mph /  11.9 km/h 7.4 mph /  11.9 km/h 82 % 0.0 in /  0 mm
05:16 12.2 °F /  -11 °C 9.2 °F /  -12.7 °C 1024.3 in /  34682.8 hPa North 7.4 mph /  11.9 km/h 7.4 mph /  11.9 km/h 82 % 0.0 in /  0 mm
05:20 12.1 °F /  -11.1 °C 9.1 °F /  -12.7 °C 1024.3 in /  34682.8 hPa North 9.3 mph /  15 km/h 9.3 mph /  15 km/h 82 % 0.0 in /  0 mm
05:25 11.9 °F /  -11.2 °C 8.9 °F /  -12.8 °C 1023.9 in /  34669.3 hPa North 11.1 mph /  17.9 km/h 11.1 mph /  17.9 km/h 82 % 0.0 in /  0 mm
05:28 11.9 °F /  -11.2 °C 8.9 °F /  -12.8 °C 1024.3 in /  34682.8 hPa North 11.3 mph /  18.2 km/h 11.3 mph /  18.2 km/h 82 % 0.0 in /  0 mm
05:33 11.8 °F /  -11.2 °C 8.8 °F /  -12.9 °C 1024.3 in /  34682.8 hPa North 11.1 mph /  17.9 km/h 11.1 mph /  17.9 km/h 82 % 0.0 in /  0 mm
05:34 11.8 °F /  -11.2 °C 8.8 °F /  -12.9 °C 1024.3 in /  34682.8 hPa North 11.1 mph /  17.9 km/h 11.1 mph /  17.9 km/h 82 % 0.0 in /  0 mm
05:39 11.8 °F /  -11.2 °C 8.8 °F /  -12.9 °C 1024.3 in /  34682.8 hPa North 11.1 mph /  17.9 km/h 11.1 mph /  17.9 km/h 82 % 0.0 in /  0 mm
05:42 11.8 °F /  -11.2 °C 8.8 °F /  -12.9 °C 1024.3 in /  34682.8 hPa NNW 9.7 mph /  15.6 km/h 9.7 mph /  15.6 km/h 82 % 0.0 in /  0 mm
05:45 11.8 °F /  -11.2 °C 9.0 °F /  -12.8 °C 1024.3 in /  34682.8 hPa North 9.3 mph /  15 km/h 9.3 mph /  15 km/h 83 % 0.0 in /  0 mm
05:50 11.8 °F /  -11.2 °C 8.8 °F /  -12.9 °C 1024.3 in /  34682.8 hPa North 7.4 mph /  11.9 km/h 7.4 mph /  11.9 km/h 82 % 0.0 in /  0 mm
05:51 11.8 °F /  -11.2 °C 8.8 °F /  -12.9 °C 1024.3 in /  34682.8 hPa North 7.4 mph /  11.9 km/h 7.4 mph /  11.9 km/h 82 % 0.0 in /  0 mm
05:56 11.8 °F /  -11.2 °C 9.1 °F /  -12.7 °C 1024.3 in /  34682.8 hPa North 5.6 mph /  9 km/h 5.6 mph /  9 km/h 83 % 0.0 in /  0 mm
05:57 11.9 °F /  -11.2 °C 9.1 °F /  -12.7 °C 1024.3 in /  34682.8 hPa North 6.4 mph /  10.3 km/h 6.4 mph /  10.3 km/h 83 % 0.0 in /  0 mm
06:02 11.8 °F /  -11.2 °C 9.1 °F /  -12.7 °C 1024.3 in /  34682.8 hPa North 6.4 mph /  10.3 km/h 6.4 mph /  10.3 km/h 83 % 0.0 in /  0 mm
06:06 11.9 °F /  -11.2 °C 9.1 °F /  -12.7 °C 1024.3 in /  34682.8 hPa North 9.3 mph /  15 km/h 9.3 mph /  15 km/h 83 % 0.0 in /  0 mm
06:11 11.8 °F /  -11.2 °C 9.1 °F /  -12.7 °C 1024.3 in /  34682.8 hPa North 9.3 mph /  15 km/h 9.3 mph /  15 km/h 83 % 0.0 in /  0 mm
06:12 11.8 °F /  -11.2 °C 9.1 °F /  -12.7 °C 1024.3 in /  34682.8 hPa North 7.4 mph /  11.9 km/h 7.4 mph /  11.9 km/h 83 % 0.0 in /  0 mm
06:13 11.8 °F /  -11.2 °C 9.1 °F /  -12.7 °C 1024.3 in /  34682.8 hPa North 8.0 mph /  12.9 km/h 8.0 mph /  12.9 km/h 83 % 0.0 in /  0 mm
06:18 11.7 °F /  -11.3 °C 8.7 °F /  -12.9 °C 1024.3 in /  34682.8 hPa North 7.4 mph /  11.9 km/h 7.4 mph /  11.9 km/h 82 % 0.0 in /  0 mm
06:19 11.7 °F /  -11.3 °C 8.7 °F /  -12.9 °C 1024.3 in /  34682.8 hPa North 9.3 mph /  15 km/h 9.3 mph /  15 km/h 82 % 0.0 in /  0 mm
06:23 11.6 °F /  -11.3 °C 8.8 °F /  -12.9 °C 1024.3 in /  34682.8 hPa North 9.3 mph /  15 km/h 9.3 mph /  15 km/h 83 % 0.0 in /  0 mm
06:25 11.5 °F /  -11.4 °C 8.7 °F /  -12.9 °C 1024.3 in /  34682.8 hPa North 9.3 mph /  15 km/h 9.3 mph /  15 km/h 83 % 0.0 in /  0 mm
06:28 11.5 °F /  -11.4 °C 8.7 °F /  -12.9 °C 1024.3 in /  34682.8 hPa North 9.3 mph /  15 km/h 9.3 mph /  15 km/h 83 % 0.0 in /  0 mm
06:37 11.4 °F /  -11.4 °C 8.7 °F /  -12.9 °C 1024.3 in /  34682.8 hPa NNW 13.0 mph /  20.9 km/h 13.0 mph /  20.9 km/h 83 % 0.0 in /  0 mm
06:38 11.4 °F /  -11.4 °C 8.7 °F /  -12.9 °C 1024.3 in /  34682.8 hPa NNW 13.0 mph /  20.9 km/h 13.0 mph /  20.9 km/h 83 % 0.0 in /  0 mm
06:43 11.4 °F /  -11.4 °C 8.7 °F /  -12.9 °C 1024.3 in /  34682.8 hPa NNW 5.6 mph /  9 km/h 5.6 mph /  9 km/h 83 % 0.0 in /  0 mm
06:44 11.4 °F /  -11.4 °C 8.7 °F /  -12.9 °C 1024.3 in /  34682.8 hPa NNW 6.4 mph /  10.3 km/h 6.4 mph /  10.3 km/h 83 % 0.0 in /  0 mm
06:49 11.5 °F /  -11.4 °C 8.7 °F /  -12.9 °C 1024.3 in /  34682.8 hPa North 6.4 mph /  10.3 km/h 6.4 mph /  10.3 km/h 83 % 0.0 in /  0 mm
06:54 11.5 °F /  -11.4 °C 8.7 °F /  -12.9 °C 1024.3 in /  34682.8 hPa NNW 5.6 mph /  9 km/h 5.6 mph /  9 km/h 83 % 0.0 in /  0 mm
06:55 11.5 °F /  -11.4 °C 8.7 °F /  -12.9 °C 1024.3 in /  34682.8 hPa North 5.6 mph /  9 km/h 5.6 mph /  9 km/h 83 % 0.0 in /  0 mm
07:00 11.4 °F /  -11.4 °C 8.7 °F /  -12.9 °C 1024.3 in /  34682.8 hPa NNW 7.4 mph /  11.9 km/h 7.7 mph /  12.4 km/h 83 % 0.0 in /  0 mm
07:01 11.4 °F /  -11.4 °C 8.7 °F /  -12.9 °C 1024.3 in /  34682.8 hPa North 9.3 mph /  15 km/h 9.3 mph /  15 km/h 83 % 0.0 in /  0 mm
07:06 11.5 °F /  -11.4 °C 8.7 °F /  -12.9 °C 1024.6 in /  34693 hPa NNW 5.6 mph /  9 km/h 5.6 mph /  9 km/h 83 % 0.0 in /  0 mm
07:08 11.5 °F /  -11.4 °C 8.7 °F /  -12.9 °C 1024.6 in /  34693 hPa North 8.0 mph /  12.9 km/h 8.0 mph /  12.9 km/h 83 % 0.0 in /  0 mm
07:11 11.6 °F /  -11.3 °C 8.8 °F /  -12.9 °C 1024.6 in /  34693 hPa North 9.7 mph /  15.6 km/h 9.7 mph /  15.6 km/h 83 % 0.0 in /  0 mm
07:14 11.6 °F /  -11.3 °C 8.8 °F /  -12.9 °C 1024.6 in /  34693 hPa North 13.0 mph /  20.9 km/h 13.0 mph /  20.9 km/h 83 % 0.0 in /  0 mm
07:17 11.5 °F /  -11.4 °C 8.6 °F /  -13 °C 1024.3 in /  34682.8 hPa North 13.0 mph /  20.9 km/h 13.0 mph /  20.9 km/h 82 % 0.0 in /  0 mm
07:21 11.5 °F /  -11.4 °C 8.6 °F /  -13 °C 1024.6 in /  34693 hPa North 11.1 mph /  17.9 km/h 11.1 mph /  17.9 km/h 82 % 0.0 in /  0 mm
07:26 11.4 °F /  -11.4 °C 8.5 °F /  -13.1 °C 1024.6 in /  34693 hPa North 11.3 mph /  18.2 km/h 11.3 mph /  18.2 km/h 82 % 0.0 in /  0 mm
07:28 11.4 °F /  -11.4 °C 8.5 °F /  -13.1 °C 1024.6 in /  34693 hPa North 11.1 mph /  17.9 km/h 11.1 mph /  17.9 km/h 82 % 0.0 in /  0 mm
07:33 11.4 °F /  -11.4 °C 8.5 °F /  -13.1 °C 1024.6 in /  34693 hPa North 11.1 mph /  17.9 km/h 11.1 mph /  17.9 km/h 82 % 0.0 in /  0 mm
07:35 11.4 °F /  -11.4 °C 8.5 °F /  -13.1 °C 1024.6 in /  34693 hPa North 11.1 mph /  17.9 km/h 11.1 mph /  17.9 km/h 82 % 0.0 in /  0 mm
07:37 11.5 °F /  -11.4 °C 8.6 °F /  -13 °C 1024.6 in /  34693 hPa NNW 9.3 mph /  15 km/h 9.3 mph /  15 km/h 82 % 0.0 in /  0 mm
07:40 11.6 °F /  -11.3 °C 8.6 °F /  -13 °C 1024.6 in /  34693 hPa NNW 9.3 mph /  15 km/h 9.3 mph /  15 km/h 82 % 0.0 in /  0 mm
07:45 11.7 °F /  -11.3 °C 8.6 °F /  -13 °C 1024.6 in /  34693 hPa North 7.4 mph /  11.9 km/h 7.4 mph /  11.9 km/h 81 % 0.0 in /  0 mm
07:46 11.8 °F /  -11.2 °C 8.6 °F /  -13 °C 1024.6 in /  34693 hPa NNW 8.0 mph /  12.9 km/h 8.0 mph /  12.9 km/h 81 % 0.0 in /  0 mm
07:48 11.8 °F /  -11.2 °C 8.7 °F /  -12.9 °C 1024.6 in /  34693 hPa North 9.3 mph /  15 km/h 9.3 mph /  15 km/h 81 % 0.0 in /  0 mm
07:52 11.9 °F /  -11.2 °C 8.6 °F /  -13 °C 1024.6 in /  34693 hPa North 9.7 mph /  15.6 km/h 9.7 mph /  15.6 km/h 80 % 0.0 in /  0 mm
07:56 11.8 °F /  -11.2 °C 8.4 °F /  -13.1 °C 1024.6 in /  34693 hPa NNW 13.0 mph /  20.9 km/h 13.0 mph /  20.9 km/h 80 % 0.0 in /  0 mm
07:57 11.7 °F /  -11.3 °C 8.4 °F /  -13.1 °C 1024.6 in /  34693 hPa NNW 11.1 mph /  17.9 km/h 11.1 mph /  17.9 km/h 80 % 0.0 in /  0 mm
08:02 11.7 °F /  -11.3 °C 8.4 °F /  -13.1 °C 1024.6 in /  34693 hPa North 14.8 mph /  23.8 km/h 14.8 mph /  23.8 km/h 80 % 0.0 in /  0 mm
08:07 11.7 °F /  -11.3 °C 8.4 °F /  -13.1 °C 1024.9 in /  34703.1 hPa NNW 9.3 mph /  15 km/h 9.3 mph /  15 km/h 80 % 0.0 in /  0 mm
08:12 11.7 °F /  -11.3 °C 8.4 °F /  -13.1 °C 1024.6 in /  34693 hPa NNW 5.6 mph /  9 km/h 5.6 mph /  9 km/h 80 % 0.0 in /  0 mm
08:13 11.8 °F /  -11.2 °C 8.4 °F /  -13.1 °C 1024.6 in /  34693 hPa NNW 6.4 mph /  10.3 km/h 6.4 mph /  10.3 km/h 80 % 0.0 in /  0 mm
08:16 11.8 °F /  -11.2 °C 8.4 °F /  -13.1 °C 1024.6 in /  34693 hPa North 8.0 mph /  12.9 km/h 8.0 mph /  12.9 km/h 80 % 0.0 in /  0 mm
08:21 11.8 °F /  -11.2 °C 8.4 °F /  -13.1 °C 1024.6 in /  34693 hPa NNW 6.4 mph /  10.3 km/h 6.4 mph /  10.3 km/h 80 % 0.0 in /  0 mm
08:23 11.8 °F /  -11.2 °C 8.7 °F /  -12.9 °C 1024.6 in /  34693 hPa North 6.4 mph /  10.3 km/h 6.4 mph /  10.3 km/h 81 % 0.0 in /  0 mm
08:28 11.8 °F /  -11.2 °C 8.7 °F /  -12.9 °C 1024.9 in /  34703.1 hPa NNW 5.6 mph /  9 km/h 5.6 mph /  9 km/h 81 % 0.0 in /  0 mm
08:29 11.8 °F /  -11.2 °C 8.7 °F /  -12.9 °C 1024.9 in /  34703.1 hPa NNW 5.6 mph /  9 km/h 5.6 mph /  9 km/h 81 % 0.0 in /  0 mm
08:34 12.0 °F /  -11.1 °C 8.8 °F /  -12.9 °C 1024.9 in /  34703.1 hPa North 7.4 mph /  11.9 km/h 7.4 mph /  11.9 km/h 81 % 0.0 in /  0 mm
08:36 12.1 °F /  -11.1 °C 8.9 °F /  -12.8 °C 1024.9 in /  34703.1 hPa North 7.4 mph /  11.9 km/h 7.4 mph /  11.9 km/h 81 % 0.0 in /  0 mm
08:40 12.1 °F /  -11.1 °C 8.7 °F /  -12.9 °C 1024.9 in /  34703.1 hPa North 9.3 mph /  15 km/h 9.3 mph /  15 km/h 80 % 0.0 in /  0 mm
08:43 12.1 °F /  -11.1 °C 8.7 °F /  -12.9 °C 1024.9 in /  34703.1 hPa NNW 9.3 mph /  15 km/h 9.3 mph /  15 km/h 80 % 0.0 in /  0 mm
08:45 12.1 °F /  -11.1 °C 8.7 °F /  -12.9 °C 1024.9 in /  34703.1 hPa NNW 7.4 mph /  11.9 km/h 7.4 mph /  11.9 km/h 80 % 0.0 in /  0 mm
08:51 12.1 °F /  -11.1 °C 8.7 °F /  -12.9 °C 1024.9 in /  34703.1 hPa NNW 5.6 mph /  9 km/h 5.6 mph /  9 km/h 80 % 0.0 in /  0 mm
08:52 12.1 °F /  -11.1 °C 8.8 °F /  -12.9 °C 1024.9 in /  34703.1 hPa NNW 5.6 mph /  9 km/h 5.6 mph /  9 km/h 80 % 0.0 in /  0 mm
08:57 12.3 °F /  -10.9 °C 8.9 °F /  -12.8 °C 1024.9 in /  34703.1 hPa NW 11.1 mph /  17.9 km/h 11.1 mph /  17.9 km/h 80 % 0.0 in /  0 mm
09:02 12.4 °F /  -10.9 °C 8.9 °F /  -12.8 °C 1025.3 in /  34716.7 hPa NW 5.6 mph /  9 km/h 5.6 mph /  9 km/h 79 % 0.0 in /  0 mm
09:03 12.5 °F /  -10.8 °C 8.9 °F /  -12.8 °C 1025.3 in /  34716.7 hPa NW 7.4 mph /  11.9 km/h 7.4 mph /  11.9 km/h 79 % 0.0 in /  0 mm
09:08 12.6 °F /  -10.8 °C 9.0 °F /  -12.8 °C 1025.3 in /  34716.7 hPa NNW 6.4 mph /  10.3 km/h 6.4 mph /  10.3 km/h 79 % 0.0 in /  0 mm
09:13 12.4 °F /  -10.9 °C 8.7 °F /  -12.9 °C 1025.3 in /  34716.7 hPa North 9.7 mph /  15.6 km/h 9.7 mph /  15.6 km/h 78 % 0.0 in /  0 mm
09:14 12.4 °F /  -10.9 °C 8.5 °F /  -13.1 °C 1025.3 in /  34716.7 hPa North 9.7 mph /  15.6 km/h 9.7 mph /  15.6 km/h 77 % 0.0 in /  0 mm
09:19 12.2 °F /  -11 °C 8.3 °F /  -13.2 °C 1025.3 in /  34716.7 hPa NNW 9.3 mph /  15 km/h 9.3 mph /  15 km/h 77 % 0.0 in /  0 mm
09:24 12.1 °F /  -11.1 °C 8.2 °F /  -13.2 °C 1025.3 in /  34716.7 hPa NNW 9.7 mph /  15.6 km/h 9.7 mph /  15.6 km/h 77 % 0.0 in /  0 mm
09:28 12.1 °F /  -11.1 °C 8.4 °F /  -13.1 °C 1025.3 in /  34716.7 hPa NNW 7.4 mph /  11.9 km/h 7.4 mph /  11.9 km/h 78 % 0.0 in /  0 mm
09:30 12.2 °F /  -11 °C 8.4 °F /  -13.1 °C 1025.3 in /  34716.7 hPa North 8.0 mph /  12.9 km/h 8.0 mph /  12.9 km/h 78 % 0.0 in /  0 mm
09:35 12.3 °F /  -10.9 °C 8.6 °F /  -13 °C 1025.3 in /  34716.7 hPa North 6.4 mph /  10.3 km/h 6.4 mph /  10.3 km/h 78 % 0.0 in /  0 mm
09:36 12.3 °F /  -10.9 °C 8.6 °F /  -13 °C 1025.3 in /  34716.7 hPa North 8.0 mph /  12.9 km/h 8.0 mph /  12.9 km/h 78 % 0.0 in /  0 mm
09:40 12.3 °F /  -10.9 °C 8.4 °F /  -13.1 °C 1025.3 in /  34716.7 hPa North 8.0 mph /  12.9 km/h 11.3 mph /  18.2 km/h 77 % 0.0 in /  0 mm
09:41 12.3 °F /  -10.9 °C 8.4 °F /  -13.1 °C 1025.3 in /  34716.7 hPa North 9.3 mph /  15 km/h 9.3 mph /  15 km/h 77 % 0.0 in /  0 mm
09:44 12.3 °F /  -10.9 °C 8.4 °F /  -13.1 °C 1025.3 in /  34716.7 hPa North 9.3 mph /  15 km/h 9.3 mph /  15 km/h 77 % 0.0 in /  0 mm
09:47 12.3 °F /  -10.9 °C 8.4 °F /  -13.1 °C 1025.3 in /  34716.7 hPa North 7.4 mph /  11.9 km/h 7.4 mph /  11.9 km/h 77 % 0.0 in /  0 mm
09:51 12.3 °F /  -10.9 °C 8.4 °F /  -13.1 °C 1025.3 in /  34716.7 hPa North 9.3 mph /  15 km/h 9.3 mph /  15 km/h 77 % 0.0 in /  0 mm
09:52 12.4 °F /  -10.9 °C 8.4 °F /  -13.1 °C 1025.6 in /  34726.8 hPa North 9.3 mph /  15 km/h 9.3 mph /  15 km/h 77 % 0.0 in /  0 mm
09:57 12.4 °F /  -10.9 °C 8.5 °F /  -13.1 °C 1025.6 in /  34726.8 hPa North 5.6 mph /  9 km/h 5.6 mph /  9 km/h 77 % 0.0 in /  0 mm
09:58 12.4 °F /  -10.9 °C 8.5 °F /  -13.1 °C 1025.6 in /  34726.8 hPa North 5.6 mph /  9 km/h 5.6 mph /  9 km/h 77 % 0.0 in /  0 mm
10:03 12.6 °F /  -10.8 °C 8.6 °F /  -13 °C 1025.6 in /  34726.8 hPa North 5.6 mph /  9 km/h 5.6 mph /  9 km/h 77 % 0.0 in /  0 mm
10:04 12.6 °F /  -10.8 °C 8.7 °F /  -12.9 °C 1025.6 in /  34726.8 hPa North 5.6 mph /  9 km/h 5.6 mph /  9 km/h 77 % 0.0 in /  0 mm
10:09 12.7 °F /  -10.7 °C 8.6 °F /  -13 °C 1025.6 in /  34726.8 hPa North 7.4 mph /  11.9 km/h 7.4 mph /  11.9 km/h 76 % 0.0 in /  0 mm
10:10 12.8 °F /  -10.7 °C 8.7 °F /  -12.9 °C 1025.6 in /  34726.8 hPa North 8.0 mph /  12.9 km/h 8.0 mph /  12.9 km/h 76 % 0.0 in /  0 mm
10:14 12.8 °F /  -10.7 °C 8.7 °F /  -12.9 °C 1025.6 in /  34726.8 hPa North 9.3 mph /  15 km/h 9.3 mph /  15 km/h 76 % 0.0 in /  0 mm
10:19 12.7 °F /  -10.7 °C 8.6 °F /  -13 °C 1025.6 in /  34726.8 hPa NNE 8.0 mph /  12.9 km/h 8.0 mph /  12.9 km/h 76 % 0.0 in /  0 mm
10:23 12.8 °F /  -10.7 °C 8.7 °F /  -12.9 °C 1026.0 in /  34740.4 hPa NNE 11.1 mph /  17.9 km/h 11.1 mph /  17.9 km/h 76 % 0.0 in /  0 mm
10:27 13.1 °F /  -10.5 °C 9.1 °F /  -12.7 °C 1026.0 in /  34740.4 hPa NNE 11.1 mph /  17.9 km/h 11.1 mph /  17.9 km/h 77 % 0.0 in /  0 mm
10:32 13.3 °F /  -10.4 °C 9.1 °F /  -12.7 °C 1026.0 in /  34740.4 hPa North 13.0 mph /  20.9 km/h 13.0 mph /  20.9 km/h 76 % 0.0 in /  0 mm
10:34 13.3 °F /  -10.4 °C 9.2 °F /  -12.7 °C 1026.0 in /  34740.4 hPa NNE 9.3 mph /  15 km/h 9.3 mph /  15 km/h 76 % 0.0 in /  0 mm
10:39 13.4 °F /  -10.3 °C 9.3 °F /  -12.6 °C 1026.0 in /  34740.4 hPa North 7.4 mph /  11.9 km/h 7.4 mph /  11.9 km/h 76 % 0.0 in /  0 mm
10:40 13.4 °F /  -10.3 °C 9.3 °F /  -12.6 °C 1026.0 in /  34740.4 hPa North 8.0 mph /  12.9 km/h 8.0 mph /  12.9 km/h 76 % 0.0 in /  0 mm
10:41 13.4 °F /  -10.3 °C 9.3 °F /  -12.6 °C 1026.0 in /  34740.4 hPa North 7.4 mph /  11.9 km/h 7.4 mph /  11.9 km/h 76 % 0.0 in /  0 mm
10:46 13.6 °F /  -10.2 °C 9.4 °F /  -12.6 °C 1026.0 in /  34740.4 hPa NNE 11.1 mph /  17.9 km/h 11.1 mph /  17.9 km/h 76 % 0.0 in /  0 mm
10:48 13.6 °F /  -10.2 °C 9.4 °F /  -12.6 °C 1026.0 in /  34740.4 hPa NNE 7.4 mph /  11.9 km/h 7.4 mph /  11.9 km/h 76 % 0.0 in /  0 mm
10:51 13.7 °F /  -10.2 °C 9.5 °F /  -12.5 °C 1026.0 in /  34740.4 hPa North 5.6 mph /  9 km/h 5.6 mph /  9 km/h 76 % 0.0 in /  0 mm
10:55 13.8 °F /  -10.1 °C 9.6 °F /  -12.4 °C 1026.3 in /  34750.5 hPa NNW 9.3 mph /  15 km/h 9.3 mph /  15 km/h 76 % 0.0 in /  0 mm
10:57 13.8 °F /  -10.1 °C 9.6 °F /  -12.4 °C 1026.3 in /  34750.5 hPa NNW 9.3 mph /  15 km/h 9.3 mph /  15 km/h 76 % 0.0 in /  0 mm
11:02 13.9 °F /  -10.1 °C 9.8 °F /  -12.3 °C 1026.0 in /  34740.4 hPa North 11.1 mph /  17.9 km/h 11.1 mph /  17.9 km/h 76 % 0.0 in /  0 mm
11:07 14.2 °F /  -9.9 °C 10.0 °F /  -12.2 °C 1026.3 in /  34750.5 hPa North 3.7 mph /  6 km/h 3.7 mph /  6 km/h 76 % 0.0 in /  0 mm
11:08 14.2 °F /  -9.9 °C 10.0 °F /  -12.2 °C 1026.3 in /  34750.5 hPa North 5.6 mph /  9 km/h 5.6 mph /  9 km/h 76 % 0.0 in /  0 mm
11:13 14.4 °F /  -9.8 °C 10.2 °F /  -12.1 °C 1026.3 in /  34750.5 hPa North 5.6 mph /  9 km/h 5.6 mph /  9 km/h 76 % 0.0 in /  0 mm
11:14 14.4 °F /  -9.8 °C 10.3 °F /  -12.1 °C 1026.3 in /  34750.5 hPa North 5.6 mph /  9 km/h 5.6 mph /  9 km/h 76 % 0.0 in /  0 mm
11:19 14.6 °F /  -9.7 °C 10.0 °F /  -12.2 °C 1026.3 in /  34750.5 hPa North 7.4 mph /  11.9 km/h 7.4 mph /  11.9 km/h 74 % 0.0 in /  0 mm
11:20 14.6 °F /  -9.7 °C 10.0 °F /  -12.2 °C 1026.3 in /  34750.5 hPa North 7.4 mph /  11.9 km/h 7.4 mph /  11.9 km/h 74 % 0.0 in /  0 mm
11:25 14.8 °F /  -9.6 °C 10.0 °F /  -12.2 °C 1026.3 in /  34750.5 hPa North 5.6 mph /  9 km/h 5.6 mph /  9 km/h 73 % 0.0 in /  0 mm
11:26 14.8 °F /  -9.6 °C 10.0 °F /  -12.2 °C 1026.3 in /  34750.5 hPa North 5.6 mph /  9 km/h 5.6 mph /  9 km/h 73 % 0.0 in /  0 mm
11:27 14.8 °F /  -9.6 °C 10.1 °F /  -12.2 °C 1026.3 in /  34750.5 hPa NNE 5.6 mph /  9 km/h 5.6 mph /  9 km/h 73 % 0.0 in /  0 mm
11:32 15.1 °F /  -9.4 °C 10.3 °F /  -12.1 °C 1026.0 in /  34740.4 hPa NE 5.6 mph /  9 km/h 5.6 mph /  9 km/h 73 % 0.0 in /  0 mm
11:34 15.1 °F /  -9.4 °C 10.3 °F /  -12.1 °C 1026.0 in /  34740.4 hPa NE 5.6 mph /  9 km/h 5.6 mph /  9 km/h 73 % 0.0 in /  0 mm
11:37 15.2 °F /  -9.3 °C 10.6 °F /  -11.9 °C 1026.3 in /  34750.5 hPa NE 5.6 mph /  9 km/h 5.6 mph /  9 km/h 74 % 0.0 in /  0 mm
11:39 15.3 °F /  -9.3 °C 10.9 °F /  -11.7 °C 1026.3 in /  34750.5 hPa NE 6.4 mph /  10.3 km/h 6.4 mph /  10.3 km/h 75 % 0.0 in /  0 mm
11:43 15.4 °F /  -9.2 °C 11.2 °F /  -11.6 °C 1026.3 in /  34750.5 hPa NE 9.3 mph /  15 km/h 9.3 mph /  15 km/h 76 % 0.0 in /  0 mm
11:44 15.5 °F /  -9.2 °C 11.3 °F /  -11.5 °C 1026.3 in /  34750.5 hPa NE 9.3 mph /  15 km/h 9.3 mph /  15 km/h 76 % 0.0 in /  0 mm
11:49 15.7 °F /  -9.1 °C 11.7 °F /  -11.3 °C 1026.3 in /  34750.5 hPa NE 9.7 mph /  15.6 km/h 9.7 mph /  15.6 km/h 77 % 0.0 in /  0 mm
11:54 15.9 °F /  -8.9 °C 11.7 °F /  -11.3 °C 1026.3 in /  34750.5 hPa NNE 5.6 mph /  9 km/h 5.6 mph /  9 km/h 76 % 0.0 in /  0 mm
11:59 16.1 °F /  -8.8 °C 11.8 °F /  -11.2 °C 1026.3 in /  34750.5 hPa NNE 1.9 mph /  3.1 km/h 1.9 mph /  3.1 km/h 76 % 0.0 in /  0 mm
12:04 16.2 °F /  -8.8 °C 12.0 °F /  -11.1 °C 1026.3 in /  34750.5 hPa NNE 3.7 mph /  6 km/h 3.7 mph /  6 km/h 76 % 0.0 in /  0 mm
12:05 16.3 °F /  -8.7 °C 12.1 °F /  -11.1 °C 1026.3 in /  34750.5 hPa WSW 6.4 mph /  10.3 km/h 6.4 mph /  10.3 km/h 76 % 0.0 in /  0 mm
12:10 16.6 °F /  -8.6 °C 12.5 °F /  -10.8 °C 1026.0 in /  34740.4 hPa NE 11.3 mph /  18.2 km/h 11.3 mph /  18.2 km/h 77 % 0.0 in /  0 mm
12:14 16.7 °F /  -8.5 °C 12.4 °F /  -10.9 °C 1026.3 in /  34750.5 hPa West 8.0 mph /  12.9 km/h 8.0 mph /  12.9 km/h 76 % 0.0 in /  0 mm
12:15 16.7 °F /  -8.5 °C 12.4 °F /  -10.9 °C 1026.3 in /  34750.5 hPa West 3.2 mph /  5.1 km/h 17.7 mph /  28.5 km/h 76 % 0.0 in /  0 mm
12:20 16.8 °F /  -8.4 °C 12.7 °F /  -10.7 °C 1026.3 in /  34750.5 hPa WNW 13.0 mph /  20.9 km/h 13.0 mph /  20.9 km/h 77 % 0.0 in /  0 mm
12:21 16.8 °F /  -8.4 °C 12.7 °F /  -10.7 °C 1026.3 in /  34750.5 hPa West 13.0 mph /  20.9 km/h 13.0 mph /  20.9 km/h 77 % 0.0 in /  0 mm
12:26 16.9 °F /  -8.4 °C 12.6 °F /  -10.8 °C 1026.0 in /  34740.4 hPa WNW 9.3 mph /  15 km/h 9.3 mph /  15 km/h 76 % 0.0 in /  0 mm
12:28 16.9 °F /  -8.4 °C 12.7 °F /  -10.7 °C 1026.0 in /  34740.4 hPa West 9.3 mph /  15 km/h 9.3 mph /  15 km/h 76 % 0.0 in /  0 mm
12:31 17.1 °F /  -8.3 °C 12.6 °F /  -10.8 °C 1026.3 in /  34750.5 hPa WNW 7.4 mph /  11.9 km/h 7.4 mph /  11.9 km/h 75 % 0.0 in /  0 mm
12:36 17.3 °F /  -8.2 °C 12.8 °F /  -10.7 °C 1026.3 in /  34750.5 hPa WSW 11.1 mph /  17.9 km/h 11.1 mph /  17.9 km/h 75 % 0.0 in /  0 mm
12:38 17.3 °F /  -8.2 °C 12.7 °F /  -10.7 °C 1026.3 in /  34750.5 hPa West 9.3 mph /  15 km/h 9.3 mph /  15 km/h 74 % 0.0 in /  0 mm
12:42 17.3 °F /  -8.2 °C 12.7 °F /  -10.7 °C 1026.0 in /  34740.4 hPa WSW 20.4 mph /  32.8 km/h 20.4 mph /  32.8 km/h 74 % 0.0 in /  0 mm
12:45 17.3 °F /  -8.2 °C 12.8 °F /  -10.7 °C 1026.0 in /  34740.4 hPa WSW 25.9 mph /  41.7 km/h 25.9 mph /  41.7 km/h 75 % 0.0 in /  0 mm
12:48 17.2 °F /  -8.2 °C 12.9 °F /  -10.6 °C 1026.0 in /  34740.4 hPa West 18.5 mph /  29.8 km/h 18.5 mph /  29.8 km/h 76 % 0.0 in /  0 mm
12:53 17.1 °F /  -8.3 °C 12.4 °F /  -10.9 °C 1025.6 in /  34726.8 hPa WSW 25.9 mph /  41.7 km/h 25.9 mph /  41.7 km/h 74 % 0.0 in /  0 mm
12:54 17.1 °F /  -8.3 °C 12.4 °F /  -10.9 °C 1025.6 in /  34726.8 hPa WSW 25.9 mph /  41.7 km/h 25.9 mph /  41.7 km/h 74 % 0.0 in /  0 mm
12:59 17.2 °F /  -8.2 °C 12.1 °F /  -11.1 °C 1025.6 in /  34726.8 hPa WSW 25.9 mph /  41.7 km/h 25.9 mph /  41.7 km/h 72 % 0.0 in /  0 mm
13:04 17.4 °F /  -8.1 °C 11.9 °F /  -11.2 °C 1025.6 in /  34726.8 hPa West 29.6 mph /  47.6 km/h 29.6 mph /  47.6 km/h 70 % 0.0 in /  0 mm
13:07 17.6 °F /  -8 °C 11.8 °F /  -11.2 °C 1025.3 in /  34716.7 hPa WSW 31.5 mph /  50.7 km/h 31.5 mph /  50.7 km/h 69 % 0.0 in /  0 mm
13:12 17.6 °F /  -8 °C 12.0 °F /  -11.1 °C 1025.3 in /  34716.7 hPa SW 31.5 mph /  50.7 km/h 31.5 mph /  50.7 km/h 70 % 0.0 in /  0 mm
13:13 17.6 °F /  -8 °C 12.0 °F /  -11.1 °C 1025.3 in /  34716.7 hPa WSW 29.6 mph /  47.6 km/h 29.6 mph /  47.6 km/h 70 % 0.0 in /  0 mm
13:14 17.6 °F /  -8 °C 12.2 °F /  -11 °C 1025.3 in /  34716.7 hPa WSW 27.8 mph /  44.7 km/h 27.8 mph /  44.7 km/h 71 % 0.0 in /  0 mm
13:19 17.4 °F /  -8.1 °C 12.1 °F /  -11.1 °C 1025.3 in /  34716.7 hPa WSW 24.1 mph /  38.8 km/h 24.1 mph /  38.8 km/h 71 % 0.0 in /  0 mm
13:20 17.4 °F /  -8.1 °C 11.9 °F /  -11.2 °C 1025.3 in /  34716.7 hPa WSW 24.1 mph /  38.8 km/h 24.1 mph /  38.8 km/h 70 % 0.0 in /  0 mm
13:25 17.8 °F /  -7.9 °C 11.3 °F /  -11.5 °C 1025.3 in /  34716.7 hPa West 31.5 mph /  50.7 km/h 31.5 mph /  50.7 km/h 66 % 0.0 in /  0 mm
13:30 18.3 °F /  -7.6 °C 11.2 °F /  -11.6 °C 1025.3 in /  34716.7 hPa West 27.8 mph /  44.7 km/h 27.8 mph /  44.7 km/h 63 % 0.0 in /  0 mm
13:31 18.4 °F /  -7.6 °C 11.2 °F /  -11.6 °C 1024.9 in /  34703.1 hPa West 25.9 mph /  41.7 km/h 25.9 mph /  41.7 km/h 63 % 0.0 in /  0 mm
13:33 18.5 °F /  -7.5 °C 11.3 °F /  -11.5 °C 1025.3 in /  34716.7 hPa WSW 18.5 mph /  29.8 km/h 18.5 mph /  29.8 km/h 63 % 0.0 in /  0 mm
13:37 18.7 °F /  -7.4 °C 10.7 °F /  -11.8 °C 1024.9 in /  34703.1 hPa West 22.2 mph /  35.7 km/h 22.2 mph /  35.7 km/h 60 % 0.0 in /  0 mm
13:39 18.8 °F /  -7.3 °C 10.8 °F /  -11.8 °C 1024.9 in /  34703.1 hPa West 27.8 mph /  44.7 km/h 27.8 mph /  44.7 km/h 60 % 0.0 in /  0 mm
13:43 19.0 °F /  -7.2 °C 10.8 °F /  -11.8 °C 1024.9 in /  34703.1 hPa WNW 25.9 mph /  41.7 km/h 25.9 mph /  41.7 km/h 59 % 0.0 in /  0 mm
13:45 19.0 °F /  -7.2 °C 10.8 °F /  -11.8 °C 1024.9 in /  34703.1 hPa WNW 25.9 mph /  41.7 km/h 25.9 mph /  41.7 km/h 59 % 0.0 in /  0 mm
13:50 19.1 °F /  -7.2 °C 10.7 °F /  -11.8 °C 1024.9 in /  34703.1 hPa West 22.2 mph /  35.7 km/h 22.2 mph /  35.7 km/h 58 % 0.0 in /  0 mm
13:55 19.2 °F /  -7.1 °C 10.4 °F /  -12 °C 1024.9 in /  34703.1 hPa WNW 29.6 mph /  47.6 km/h 29.6 mph /  47.6 km/h 57 % 0.0 in /  0 mm
13:56 19.2 °F /  -7.1 °C 10.4 °F /  -12 °C 1024.9 in /  34703.1 hPa NW 25.9 mph /  41.7 km/h 25.9 mph /  41.7 km/h 57 % 0.0 in /  0 mm
14:01 19.2 °F /  -7.1 °C 10.5 °F /  -11.9 °C 1024.9 in /  34703.1 hPa NW 11.1 mph /  17.9 km/h 11.1 mph /  17.9 km/h 57 % 0.0 in /  0 mm
14:02 19.2 °F /  -7.1 °C 10.5 °F /  -11.9 °C 1024.9 in /  34703.1 hPa NW 11.1 mph /  17.9 km/h 11.1 mph /  17.9 km/h 57 % 0.0 in /  0 mm
14:07 19.3 °F /  -7.1 °C 10.3 °F /  -12.1 °C 1024.9 in /  34703.1 hPa WNW 25.9 mph /  41.7 km/h 25.9 mph /  41.7 km/h 56 % 0.0 in /  0 mm
14:08 19.4 °F /  -7 °C 10.4 °F /  -12 °C 1024.9 in /  34703.1 hPa West 18.5 mph /  29.8 km/h 18.5 mph /  29.8 km/h 56 % 0.0 in /  0 mm
14:14 19.4 °F /  -7 °C 10.2 °F /  -12.1 °C 1024.9 in /  34703.1 hPa West 25.9 mph /  41.7 km/h 25.9 mph /  41.7 km/h 55 % 0.0 in /  0 mm
14:18 19.4 °F /  -7 °C 10.2 °F /  -12.1 °C 1024.9 in /  34703.1 hPa West 25.7 mph /  41.4 km/h 25.7 mph /  41.4 km/h 55 % 0.0 in /  0 mm
14:23 19.4 °F /  -7 °C 10.2 °F /  -12.1 °C 1024.9 in /  34703.1 hPa West 29.6 mph /  47.6 km/h 29.6 mph /  47.6 km/h 55 % 0.0 in /  0 mm
14:24 19.4 °F /  -7 °C 9.9 °F /  -12.3 °C 1024.9 in /  34703.1 hPa West 29.6 mph /  47.6 km/h 29.6 mph /  47.6 km/h 54 % 0.0 in /  0 mm
14:27 19.4 °F /  -7 °C 10.2 °F /  -12.1 °C 1024.9 in /  34703.1 hPa West 31.5 mph /  50.7 km/h 31.5 mph /  50.7 km/h 55 % 0.0 in /  0 mm
14:30 19.4 °F /  -7 °C 10.2 °F /  -12.1 °C 1025.3 in /  34716.7 hPa West 24.1 mph /  38.8 km/h 24.1 mph /  38.8 km/h 55 % 0.0 in /  0 mm
14:35 19.4 °F /  -7 °C 9.9 °F /  -12.3 °C 1024.9 in /  34703.1 hPa WNW 16.7 mph /  26.9 km/h 16.7 mph /  26.9 km/h 54 % 0.0 in /  0 mm
14:38 19.4 °F /  -7 °C 9.9 °F /  -12.3 °C 1024.9 in /  34703.1 hPa WNW 18.5 mph /  29.8 km/h 18.5 mph /  29.8 km/h 54 % 0.0 in /  0 mm
14:40 19.5 °F /  -6.9 °C 9.9 °F /  -12.3 °C 1024.9 in /  34703.1 hPa West 22.2 mph /  35.7 km/h 22.2 mph /  35.7 km/h 54 % 0.0 in /  0 mm
14:45 19.4 °F /  -7 °C 10.2 °F /  -12.1 °C 1025.3 in /  34716.7 hPa West 19.3 mph /  31.1 km/h 19.3 mph /  31.1 km/h 55 % 0.0 in /  0 mm
14:50 19.4 °F /  -7 °C 10.1 °F /  -12.2 °C 1024.9 in /  34703.1 hPa West 11.3 mph /  18.2 km/h 11.3 mph /  18.2 km/h 55 % 0.0 in /  0 mm
14:55 19.4 °F /  -7 °C 10.2 °F /  -12.1 °C 1024.9 in /  34703.1 hPa West 20.4 mph /  32.8 km/h 20.4 mph /  32.8 km/h 55 % 0.0 in /  0 mm
14:56 19.4 °F /  -7 °C 10.2 °F /  -12.1 °C 1024.9 in /  34703.1 hPa WNW 20.4 mph /  32.8 km/h 20.4 mph /  32.8 km/h 55 % 0.0 in /  0 mm
15:01 19.4 °F /  -7 °C 10.1 °F /  -12.2 °C 1024.9 in /  34703.1 hPa WNW 18.5 mph /  29.8 km/h 18.5 mph /  29.8 km/h 55 % 0.0 in /  0 mm
15:07 19.4 °F /  -7 °C 10.1 °F /  -12.2 °C 1024.9 in /  34703.1 hPa West 14.8 mph /  23.8 km/h 14.8 mph /  23.8 km/h 55 % 0.0 in /  0 mm
15:11 19.4 °F /  -7 °C 10.4 °F /  -12 °C 1025.3 in /  34716.7 hPa West 11.3 mph /  18.2 km/h 11.3 mph /  18.2 km/h 56 % 0.0 in /  0 mm
15:12 19.4 °F /  -7 °C 10.4 °F /  -12 °C 1025.3 in /  34716.7 hPa West 14.5 mph /  23.3 km/h 14.5 mph /  23.3 km/h 56 % 0.0 in /  0 mm
15:17 19.3 °F /  -7.1 °C 10.6 °F /  -11.9 °C 1025.3 in /  34716.7 hPa WSW 13.0 mph /  20.9 km/h 13.0 mph /  20.9 km/h 57 % 0.0 in /  0 mm
15:21 19.0 °F /  -7.2 °C 11.1 °F /  -11.6 °C 1025.3 in /  34716.7 hPa West 18.5 mph /  29.8 km/h 18.5 mph /  29.8 km/h 60 % 0.0 in /  0 mm
15:22 19.0 °F /  -7.2 °C 11.1 °F /  -11.6 °C 1025.3 in /  34716.7 hPa WSW 18.5 mph /  29.8 km/h 18.5 mph /  29.8 km/h 60 % 0.0 in /  0 mm
15:27 18.8 °F /  -7.3 °C 10.9 °F /  -11.7 °C 1024.9 in /  34703.1 hPa WSW 16.7 mph /  26.9 km/h 16.7 mph /  26.9 km/h 60 % 0.0 in /  0 mm
15:29 18.8 °F /  -7.3 °C 11.2 °F /  -11.6 °C 1024.9 in /  34703.1 hPa West 16.7 mph /  26.9 km/h 16.7 mph /  26.9 km/h 61 % 0.0 in /  0 mm
15:34 18.8 °F /  -7.3 °C 10.6 °F /  -11.9 °C 1024.9 in /  34703.1 hPa WNW 6.4 mph /  10.3 km/h 6.8 mph /  10.9 km/h 59 % 0.0 in /  0 mm
15:35 18.8 °F /  -7.3 °C 10.4 °F /  -12 °C 1024.9 in /  34703.1 hPa WNW 11.1 mph /  17.9 km/h 11.1 mph /  17.9 km/h 58 % 0.0 in /  0 mm
15:40 19.1 °F /  -7.2 °C 10.3 °F /  -12.1 °C 1024.9 in /  34703.1 hPa WNW 13.0 mph /  20.9 km/h 13.0 mph /  20.9 km/h 57 % 0.0 in /  0 mm
15:41 19.1 °F /  -7.2 °C 10.3 °F /  -12.1 °C 1024.9 in /  34703.1 hPa WNW 13.0 mph /  20.9 km/h 13.0 mph /  20.9 km/h 57 % 0.0 in /  0 mm
15:42 19.2 °F /  -7.1 °C 10.2 °F /  -12.1 °C 1024.9 in /  34703.1 hPa WNW 13.0 mph /  20.9 km/h 13.0 mph /  20.9 km/h 56 % 0.0 in /  0 mm
15:47 19.3 °F /  -7.1 °C 10.1 °F /  -12.2 °C 1024.9 in /  34703.1 hPa NW 13.0 mph /  20.9 km/h 13.0 mph /  20.9 km/h 55 % 0.0 in /  0 mm
15:49 19.4 °F /  -7 °C 10.1 °F /  -12.2 °C 1024.9 in /  34703.1 hPa NW 14.8 mph /  23.8 km/h 14.8 mph /  23.8 km/h 55 % 0.0 in /  0 mm
15:50 19.4 °F /  -7 °C 10.1 °F /  -12.2 °C 1024.9 in /  34703.1 hPa WNW 14.8 mph /  23.8 km/h 14.8 mph /  23.8 km/h 55 % 0.0 in /  0 mm
15:55 19.5 °F /  -6.9 °C 10.2 °F /  -12.1 °C 1024.9 in /  34703.1 hPa West 14.8 mph /  23.8 km/h 14.8 mph /  23.8 km/h 55 % 0.0 in /  0 mm
15:56 19.5 °F /  -6.9 °C 10.2 °F /  -12.1 °C 1024.9 in /  34703.1 hPa West 14.8 mph /  23.8 km/h 14.8 mph /  23.8 km/h 55 % 0.0 in /  0 mm
16:00 19.5 °F /  -6.9 °C 10.5 °F /  -11.9 °C 1024.9 in /  34703.1 hPa West 16.7 mph /  26.9 km/h 16.7 mph /  26.9 km/h 56 % 0.0 in /  0 mm
16:01 19.5 °F /  -6.9 °C 10.5 °F /  -11.9 °C 1024.9 in /  34703.1 hPa West 16.7 mph /  26.9 km/h 16.7 mph /  26.9 km/h 56 % 0.0 in /  0 mm
16:02 19.5 °F /  -6.9 °C 10.5 °F /  -11.9 °C 1024.9 in /  34703.1 hPa WNW 13.0 mph /  20.9 km/h 13.0 mph /  20.9 km/h 56 % 0.0 in /  0 mm
16:07 19.4 °F /  -7 °C 10.4 °F /  -12 °C 1024.9 in /  34703.1 hPa West 11.3 mph /  18.2 km/h 11.3 mph /  18.2 km/h 56 % 0.0 in /  0 mm
16:08 19.4 °F /  -7 °C 10.4 °F /  -12 °C 1025.3 in /  34716.7 hPa West 12.9 mph /  20.8 km/h 12.9 mph /  20.8 km/h 56 % 0.0 in /  0 mm
16:09 19.4 °F /  -7 °C 10.4 °F /  -12 °C 1025.3 in /  34716.7 hPa WNW 14.8 mph /  23.8 km/h 14.8 mph /  23.8 km/h 56 % 0.0 in /  0 mm
16:13 19.4 °F /  -7 °C 10.4 °F /  -12 °C 1025.3 in /  34716.7 hPa NW 12.9 mph /  20.8 km/h 12.9 mph /  20.8 km/h 56 % 0.0 in /  0 mm
16:18 19.4 °F /  -7 °C 10.2 °F /  -12.1 °C 1025.3 in /  34716.7 hPa West 20.4 mph /  32.8 km/h 20.4 mph /  32.8 km/h 55 % 0.0 in /  0 mm
16:20 19.4 °F /  -7 °C 10.2 °F /  -12.1 °C 1025.3 in /  34716.7 hPa West 19.3 mph /  31.1 km/h 19.3 mph /  31.1 km/h 55 % 0.0 in /  0 mm
16:24 19.5 °F /  -6.9 °C 10.5 °F /  -11.9 °C 1025.3 in /  34716.7 hPa West 24.1 mph /  38.8 km/h 24.1 mph /  38.8 km/h 56 % 0.0 in /  0 mm
16:26 19.6 °F /  -6.9 °C 10.3 °F /  -12.1 °C 1025.3 in /  34716.7 hPa WNW 24.1 mph /  38.8 km/h 24.1 mph /  38.8 km/h 55 % 0.0 in /  0 mm
16:29 19.6 °F /  -6.9 °C 10.6 °F /  -11.9 °C 1025.3 in /  34716.7 hPa West 20.4 mph /  32.8 km/h 20.4 mph /  32.8 km/h 56 % 0.0 in /  0 mm
16:34 19.7 °F /  -6.8 °C 10.7 °F /  -11.8 °C 1025.3 in /  34716.7 hPa West 29.6 mph /  47.6 km/h 29.6 mph /  47.6 km/h 56 % 0.0 in /  0 mm
16:39 19.7 °F /  -6.8 °C 10.9 °F /  -11.7 °C 1025.3 in /  34716.7 hPa West 22.2 mph /  35.7 km/h 22.2 mph /  35.7 km/h 57 % 0.0 in /  0 mm
16:40 19.8 °F /  -6.8 °C 11.0 °F /  -11.7 °C 1025.3 in /  34716.7 hPa WNW 22.2 mph /  35.7 km/h 22.2 mph /  35.7 km/h 57 % 0.0 in /  0 mm
16:45 19.7 °F /  -6.8 °C 10.9 °F /  -11.7 °C 1025.3 in /  34716.7 hPa West 22.2 mph /  35.7 km/h 22.2 mph /  35.7 km/h 57 % 0.0 in /  0 mm
16:50 19.6 °F /  -6.9 °C 11.1 °F /  -11.6 °C 1025.6 in /  34726.8 hPa West 22.5 mph /  36.2 km/h 22.5 mph /  36.2 km/h 58 % 0.0 in /  0 mm
16:53 19.4 °F /  -7 °C 10.9 °F /  -11.7 °C 1025.3 in /  34716.7 hPa WSW 29.6 mph /  47.6 km/h 29.6 mph /  47.6 km/h 58 % 0.0 in /  0 mm
16:58 19.3 °F /  -7.1 °C 11.1 °F /  -11.6 °C 1025.3 in /  34716.7 hPa West 27.8 mph /  44.7 km/h 27.8 mph /  44.7 km/h 59 % 0.0 in /  0 mm
16:59 19.3 °F /  -7.1 °C 11.1 °F /  -11.6 °C 1025.3 in /  34716.7 hPa West 27.8 mph /  44.7 km/h 27.8 mph /  44.7 km/h 59 % 0.0 in /  0 mm
17:01 19.2 °F /  -7.1 °C 11.0 °F /  -11.7 °C 1025.3 in /  34716.7 hPa West 27.8 mph /  44.7 km/h 27.8 mph /  44.7 km/h 59 % 0.0 in /  0 mm
17:06 19.1 °F /  -7.2 °C 11.2 °F /  -11.6 °C 1025.3 in /  34716.7 hPa West 31.5 mph /  50.7 km/h 31.5 mph /  50.7 km/h 60 % 0.0 in /  0 mm
17:07 19.1 °F /  -7.2 °C 11.2 °F /  -11.6 °C 1025.3 in /  34716.7 hPa West 24.1 mph /  38.8 km/h 24.1 mph /  38.8 km/h 60 % 0.0 in /  0 mm
17:12 19.0 °F /  -7.2 °C 11.1 °F /  -11.6 °C 1025.3 in /  34716.7 hPa West 31.5 mph /  50.7 km/h 31.5 mph /  50.7 km/h 60 % 0.0 in /  0 mm
17:13 19.0 °F /  -7.2 °C 11.1 °F /  -11.6 °C 1025.3 in /  34716.7 hPa WNW 31.5 mph /  50.7 km/h 31.5 mph /  50.7 km/h 60 % 0.0 in /  0 mm
17:14 19.0 °F /  -7.2 °C 11.1 °F /  -11.6 °C 1025.3 in /  34716.7 hPa West 27.8 mph /  44.7 km/h 27.8 mph /  44.7 km/h 60 % 0.0 in /  0 mm
17:19 18.9 °F /  -7.3 °C 11.3 °F /  -11.5 °C 1024.9 in /  34703.1 hPa West 20.4 mph /  32.8 km/h 20.4 mph /  32.8 km/h 61 % 0.0 in /  0 mm
17:24 18.9 °F /  -7.3 °C 11.2 °F /  -11.6 °C 1025.3 in /  34716.7 hPa WNW 29.6 mph /  47.6 km/h 29.6 mph /  47.6 km/h 61 % 0.0 in /  0 mm
17:25 18.9 °F /  -7.3 °C 11.2 °F /  -11.6 °C 1025.3 in /  34716.7 hPa WNW 29.6 mph /  47.6 km/h 29.6 mph /  47.6 km/h 61 % 0.0 in /  0 mm
17:30 18.8 °F /  -7.3 °C 10.9 °F /  -11.7 °C 1025.3 in /  34716.7 hPa West 31.5 mph /  50.7 km/h 31.5 mph /  50.7 km/h 60 % 0.0 in /  0 mm
17:31 18.9 °F /  -7.3 °C 10.9 °F /  -11.7 °C 1025.3 in /  34716.7 hPa West 31.5 mph /  50.7 km/h 31.5 mph /  50.7 km/h 60 % 0.0 in /  0 mm
17:36 18.9 °F /  -7.3 °C 10.9 °F /  -11.7 °C 1025.3 in /  34716.7 hPa West 27.8 mph /  44.7 km/h 27.8 mph /  44.7 km/h 60 % 0.0 in /  0 mm
17:41 18.8 °F /  -7.3 °C 10.9 °F /  -11.7 °C 1025.6 in /  34726.8 hPa West 25.9 mph /  41.7 km/h 25.9 mph /  41.7 km/h 60 % 0.0 in /  0 mm
17:42 18.8 °F /  -7.3 °C 10.9 °F /  -11.7 °C 1025.6 in /  34726.8 hPa West 25.9 mph /  41.7 km/h 25.9 mph /  41.7 km/h 60 % 0.0 in /  0 mm
17:44 18.8 °F /  -7.3 °C 10.8 °F /  -11.8 °C 1025.6 in /  34726.8 hPa West 25.9 mph /  41.7 km/h 25.9 mph /  41.7 km/h 60 % 0.0 in /  0 mm
17:47 18.8 °F /  -7.3 °C 10.6 °F /  -11.9 °C 1025.6 in /  34726.8 hPa WNW 31.5 mph /  50.7 km/h 31.5 mph /  50.7 km/h 59 % 0.0 in /  0 mm
17:52 18.8 °F /  -7.3 °C 10.9 °F /  -11.7 °C 1025.6 in /  34726.8 hPa West 20.4 mph /  32.8 km/h 20.4 mph /  32.8 km/h 60 % 0.0 in /  0 mm
17:57 18.8 °F /  -7.3 °C 10.6 °F /  -11.9 °C 1026.0 in /  34740.4 hPa West 27.8 mph /  44.7 km/h 27.8 mph /  44.7 km/h 59 % 0.0 in /  0 mm
17:58 18.8 °F /  -7.3 °C 10.6 °F /  -11.9 °C 1026.0 in /  34740.4 hPa West 27.8 mph /  44.7 km/h 27.8 mph /  44.7 km/h 59 % 0.0 in /  0 mm
18:03 18.8 °F /  -7.3 °C 10.8 °F /  -11.8 °C 1025.6 in /  34726.8 hPa WSW 24.1 mph /  38.8 km/h 24.1 mph /  38.8 km/h 60 % 0.0 in /  0 mm
18:04 18.8 °F /  -7.3 °C 10.8 °F /  -11.8 °C 1026.0 in /  34740.4 hPa West 24.1 mph /  38.8 km/h 24.1 mph /  38.8 km/h 60 % 0.0 in /  0 mm
18:09 18.7 °F /  -7.4 °C 10.7 °F /  -11.8 °C 1026.0 in /  34740.4 hPa West 27.8 mph /  44.7 km/h 27.8 mph /  44.7 km/h 60 % 0.0 in /  0 mm
18:10 18.7 °F /  -7.4 °C 10.7 °F /  -11.8 °C 1026.0 in /  34740.4 hPa West 25.7 mph /  41.4 km/h 25.7 mph /  41.4 km/h 60 % 0.0 in /  0 mm
18:14 18.7 °F /  -7.4 °C 10.7 °F /  -11.8 °C 1026.0 in /  34740.4 hPa West 30.6 mph /  49.2 km/h 30.6 mph /  49.2 km/h 60 % 0.0 in /  0 mm
18:16 18.6 °F /  -7.4 °C 10.7 °F /  -11.8 °C 1026.0 in /  34740.4 hPa West 31.5 mph /  50.7 km/h 31.5 mph /  50.7 km/h 60 % 0.0 in /  0 mm
18:21 18.6 °F /  -7.4 °C 10.9 °F /  -11.7 °C 1026.0 in /  34740.4 hPa West 25.7 mph /  41.4 km/h 25.7 mph /  41.4 km/h 61 % 0.0 in /  0 mm
18:24 18.4 °F /  -7.6 °C 10.8 °F /  -11.8 °C 1026.0 in /  34740.4 hPa West 24.1 mph /  38.8 km/h 24.1 mph /  38.8 km/h 61 % 0.0 in /  0 mm
18:27 18.4 °F /  -7.6 °C 10.7 °F /  -11.8 °C 1026.0 in /  34740.4 hPa West 30.6 mph /  49.2 km/h 30.6 mph /  49.2 km/h 61 % 0.0 in /  0 mm
18:29 18.4 °F /  -7.6 °C 11.0 °F /  -11.7 °C 1026.3 in /  34750.5 hPa WSW 31.5 mph /  50.7 km/h 31.5 mph /  50.7 km/h 62 % 0.0 in /  0 mm
18:34 18.4 °F /  -7.6 °C 11.0 °F /  -11.7 °C 1026.3 in /  34750.5 hPa West 27.8 mph /  44.7 km/h 27.8 mph /  44.7 km/h 62 % 0.0 in /  0 mm
18:37 18.3 °F /  -7.6 °C 10.9 °F /  -11.7 °C 1026.3 in /  34750.5 hPa West 20.9 mph /  33.6 km/h 20.9 mph /  33.6 km/h 62 % 0.0 in /  0 mm
18:42 18.3 °F /  -7.6 °C 10.9 °F /  -11.7 °C 1026.3 in /  34750.5 hPa West 25.9 mph /  41.7 km/h 25.9 mph /  41.7 km/h 62 % 0.0 in /  0 mm
18:43 18.2 °F /  -7.7 °C 10.8 °F /  -11.8 °C 1026.3 in /  34750.5 hPa WSW 27.8 mph /  44.7 km/h 27.8 mph /  44.7 km/h 62 % 0.0 in /  0 mm
18:48 18.2 °F /  -7.7 °C 10.8 °F /  -11.8 °C 1026.3 in /  34750.5 hPa WSW 29.6 mph /  47.6 km/h 29.6 mph /  47.6 km/h 62 % 0.0 in /  0 mm
18:51 18.2 °F /  -7.7 °C 10.8 °F /  -11.8 °C 1026.6 in /  34760.7 hPa West 29.6 mph /  47.6 km/h 29.6 mph /  47.6 km/h 62 % 0.0 in /  0 mm
18:53 18.2 °F /  -7.7 °C 11.0 °F /  -11.7 °C 1026.6 in /  34760.7 hPa West 29.6 mph /  47.6 km/h 29.6 mph /  47.6 km/h 63 % 0.0 in /  0 mm
18:58 18.1 °F /  -7.7 °C 10.9 °F /  -11.7 °C 1026.6 in /  34760.7 hPa West 18.5 mph /  29.8 km/h 18.5 mph /  29.8 km/h 63 % 0.0 in /  0 mm
18:59 18.1 °F /  -7.7 °C 10.9 °F /  -11.7 °C 1026.6 in /  34760.7 hPa WNW 18.5 mph /  29.8 km/h 18.5 mph /  29.8 km/h 63 % 0.0 in /  0 mm
19:04 18.0 °F /  -7.8 °C 11.1 °F /  -11.6 °C 1026.6 in /  34760.7 hPa WSW 29.6 mph /  47.6 km/h 29.6 mph /  47.6 km/h 64 % 0.0 in /  0 mm
19:05 18.0 °F /  -7.8 °C 11.3 °F /  -11.5 °C 1026.6 in /  34760.7 hPa WSW 27.8 mph /  44.7 km/h 27.8 mph /  44.7 km/h 65 % 0.0 in /  0 mm
19:07 17.9 °F /  -7.8 °C 11.3 °F /  -11.5 °C 1026.6 in /  34760.7 hPa WSW 31.5 mph /  50.7 km/h 31.5 mph /  50.7 km/h 65 % 0.0 in /  0 mm
19:12 17.9 °F /  -7.8 °C 11.5 °F /  -11.4 °C 1027.0 in /  34774.2 hPa WSW 31.5 mph /  50.7 km/h 31.5 mph /  50.7 km/h 66 % 0.0 in /  0 mm
19:16 17.9 °F /  -7.8 °C 11.4 °F /  -11.4 °C 1027.0 in /  34774.2 hPa WSW 20.9 mph /  33.6 km/h 20.9 mph /  33.6 km/h 66 % 0.0 in /  0 mm
19:18 17.9 °F /  -7.8 °C 11.4 °F /  -11.4 °C 1027.0 in /  34774.2 hPa WSW 24.1 mph /  38.8 km/h 24.1 mph /  38.8 km/h 66 % 0.0 in /  0 mm
19:22 17.8 °F /  -7.9 °C 11.4 °F /  -11.4 °C 1027.3 in /  34784.4 hPa SW 25.7 mph /  41.4 km/h 25.7 mph /  41.4 km/h 66 % 0.0 in /  0 mm
19:24 17.8 °F /  -7.9 °C 11.6 °F /  -11.3 °C 1027.3 in /  34784.4 hPa West 33.3 mph /  53.6 km/h 33.3 mph /  53.6 km/h 67 % 0.0 in /  0 mm
19:30 17.7 °F /  -7.9 °C 11.7 °F /  -11.3 °C 1027.3 in /  34784.4 hPa West 33.3 mph /  53.6 km/h 33.3 mph /  53.6 km/h 68 % 0.0 in /  0 mm
19:33 17.7 °F /  -7.9 °C 11.9 °F /  -11.2 °C 1027.3 in /  34784.4 hPa WSW 31.5 mph /  50.7 km/h 31.5 mph /  50.7 km/h 69 % 0.0 in /  0 mm
19:37 17.6 °F /  -8 °C 11.8 °F /  -11.2 °C 1027.3 in /  34784.4 hPa West 31.5 mph /  50.7 km/h 31.5 mph /  50.7 km/h 69 % 0.0 in /  0 mm
19:42 17.6 °F /  -8 °C 12.0 °F /  -11.1 °C 1027.7 in /  34797.9 hPa WSW 29.6 mph /  47.6 km/h 29.6 mph /  47.6 km/h 70 % 0.0 in /  0 mm
19:44 17.6 °F /  -8 °C 12.0 °F /  -11.1 °C 1027.7 in /  34797.9 hPa WSW 31.5 mph /  50.7 km/h 31.5 mph /  50.7 km/h 70 % 0.0 in /  0 mm
19:48 17.5 °F /  -8.1 °C 11.9 °F /  -11.2 °C 1027.7 in /  34797.9 hPa WSW 27.8 mph /  44.7 km/h 27.8 mph /  44.7 km/h 70 % 0.0 in /  0 mm
19:51 17.4 °F /  -8.1 °C 12.1 °F /  -11.1 °C 1027.7 in /  34797.9 hPa WSW 35.2 mph /  56.6 km/h 35.2 mph /  56.6 km/h 71 % 0.0 in /  0 mm
19:54 17.4 °F /  -8.1 °C 12.1 °F /  -11.1 °C 1028.0 in /  34808.1 hPa WSW 31.5 mph /  50.7 km/h 31.5 mph /  50.7 km/h 71 % 0.0 in /  0 mm
19:56 17.4 °F /  -8.1 °C 12.1 °F /  -11.1 °C 1028.0 in /  34808.1 hPa WSW 31.5 mph /  50.7 km/h 31.5 mph /  50.7 km/h 71 % 0.0 in /  0 mm
20:00 17.2 °F /  -8.2 °C 12.1 °F /  -11.1 °C 1027.7 in /  34797.9 hPa West 33.3 mph /  53.6 km/h 33.3 mph /  53.6 km/h 72 % 0.0 in /  0 mm
20:04 17.2 °F /  -8.2 °C 12.1 °F /  -11.1 °C 1028.0 in /  34808.1 hPa WSW 24.1 mph /  38.8 km/h 24.1 mph /  38.8 km/h 72 % 0.0 in /  0 mm
20:06 17.2 °F /  -8.2 °C 12.3 °F /  -10.9 °C 1028.0 in /  34808.1 hPa West 25.9 mph /  41.7 km/h 25.9 mph /  41.7 km/h 73 % 0.0 in /  0 mm
20:10 17.1 °F /  -8.3 °C 12.2 °F /  -11 °C 1028.0 in /  34808.1 hPa West 27.8 mph /  44.7 km/h 27.8 mph /  44.7 km/h 73 % 0.0 in /  0 mm
20:15 17.1 °F /  -8.3 °C 12.4 °F /  -10.9 °C 1028.0 in /  34808.1 hPa WSW 29.0 mph /  46.7 km/h 29.0 mph /  46.7 km/h 74 % 0.0 in /  0 mm
20:17 17.2 °F /  -8.2 °C 12.5 °F /  -10.8 °C 1028.0 in /  34808.1 hPa West 31.5 mph /  50.7 km/h 31.5 mph /  50.7 km/h 74 % 0.0 in /  0 mm
20:22 17.2 °F /  -8.2 °C 12.6 °F /  -10.8 °C 1028.3 in /  34818.2 hPa WSW 31.5 mph /  50.7 km/h 31.5 mph /  50.7 km/h 74 % 0.0 in /  0 mm
20:23 17.2 °F /  -8.2 °C 12.3 °F /  -10.9 °C 1028.3 in /  34818.2 hPa WSW 31.5 mph /  50.7 km/h 31.5 mph /  50.7 km/h 73 % 0.0 in /  0 mm
20:28 17.2 °F /  -8.2 °C 12.3 °F /  -10.9 °C 1028.3 in /  34818.2 hPa West 19.3 mph /  31.1 km/h 19.3 mph /  31.1 km/h 73 % 0.0 in /  0 mm
20:29 17.2 °F /  -8.2 °C 12.3 °F /  -10.9 °C 1028.7 in /  34831.8 hPa West 16.7 mph /  26.9 km/h 16.7 mph /  26.9 km/h 73 % 0.0 in /  0 mm
20:34 17.2 °F /  -8.2 °C 12.3 °F /  -10.9 °C 1028.7 in /  34831.8 hPa West 20.4 mph /  32.8 km/h 20.4 mph /  32.8 km/h 73 % 0.0 in /  0 mm
20:36 17.2 °F /  -8.2 °C 12.3 °F /  -10.9 °C 1028.7 in /  34831.8 hPa West 20.4 mph /  32.8 km/h 20.4 mph /  32.8 km/h 73 % 0.0 in /  0 mm
20:41 17.2 °F /  -8.2 °C 12.3 °F /  -10.9 °C 1028.7 in /  34831.8 hPa West 24.1 mph /  38.8 km/h 24.1 mph /  38.8 km/h 73 % 0.0 in /  0 mm
20:43 17.3 °F /  -8.2 °C 12.4 °F /  -10.9 °C 1028.7 in /  34831.8 hPa WSW 24.1 mph /  38.8 km/h 24.1 mph /  38.8 km/h 73 % 0.0 in /  0 mm
20:48 17.4 °F /  -8.1 °C 12.5 °F /  -10.8 °C 1028.7 in /  34831.8 hPa West 24.1 mph /  38.8 km/h 24.1 mph /  38.8 km/h 73 % 0.0 in /  0 mm
20:53 17.4 °F /  -8.1 °C 12.5 °F /  -10.8 °C 1028.7 in /  34831.8 hPa WSW 18.5 mph /  29.8 km/h 18.5 mph /  29.8 km/h 73 % 0.0 in /  0 mm
20:54 17.4 °F /  -8.1 °C 12.5 °F /  -10.8 °C 1028.7 in /  34831.8 hPa West 16.7 mph /  26.9 km/h 16.7 mph /  26.9 km/h 73 % 0.0 in /  0 mm
20:59 17.4 °F /  -8.1 °C 12.3 °F /  -10.9 °C 1028.7 in /  34831.8 hPa WSW 24.1 mph /  38.8 km/h 24.1 mph /  38.8 km/h 72 % 0.0 in /  0 mm
21:03 17.4 °F /  -8.1 °C 12.3 °F /  -10.9 °C 1028.7 in /  34831.8 hPa WSW 24.1 mph /  38.8 km/h 24.1 mph /  38.8 km/h 72 % 0.0 in /  0 mm
21:04 17.4 °F /  -8.1 °C 12.1 °F /  -11.1 °C 1028.7 in /  34831.8 hPa West 20.4 mph /  32.8 km/h 20.4 mph /  32.8 km/h 71 % 0.0 in /  0 mm
21:09 17.4 °F /  -8.1 °C 12.3 °F /  -10.9 °C 1028.7 in /  34831.8 hPa WSW 27.8 mph /  44.7 km/h 27.8 mph /  44.7 km/h 72 % 0.0 in /  0 mm
21:10 17.4 °F /  -8.1 °C 12.3 °F /  -10.9 °C 1028.7 in /  34831.8 hPa SW 27.8 mph /  44.7 km/h 27.8 mph /  44.7 km/h 72 % 0.0 in /  0 mm
21:14 17.4 °F /  -8.1 °C 12.3 °F /  -10.9 °C 1028.7 in /  34831.8 hPa West 22.2 mph /  35.7 km/h 22.2 mph /  35.7 km/h 72 % 0.0 in /  0 mm
21:15 17.4 °F /  -8.1 °C 12.3 °F /  -10.9 °C 1028.7 in /  34831.8 hPa WSW 20.4 mph /  32.8 km/h 20.4 mph /  32.8 km/h 72 % 0.0 in /  0 mm
21:20 17.4 °F /  -8.1 °C 12.3 °F /  -10.9 °C 1029.0 in /  34841.9 hPa WSW 19.3 mph /  31.1 km/h 19.3 mph /  31.1 km/h 72 % 0.0 in /  0 mm
21:21 17.4 °F /  -8.1 °C 12.3 °F /  -10.9 °C 1029.0 in /  34841.9 hPa WSW 22.5 mph /  36.2 km/h 22.5 mph /  36.2 km/h 72 % 0.0 in /  0 mm
21:26 17.3 °F /  -8.2 °C 12.2 °F /  -11 °C 1029.0 in /  34841.9 hPa WSW 18.5 mph /  29.8 km/h 18.5 mph /  29.8 km/h 72 % 0.0 in /  0 mm
21:28 17.3 °F /  -8.2 °C 12.2 °F /  -11 °C 1029.0 in /  34841.9 hPa WSW 18.5 mph /  29.8 km/h 18.5 mph /  29.8 km/h 72 % 0.0 in /  0 mm
21:33 17.3 °F /  -8.2 °C 12.0 °F /  -11.1 °C 1029.3 in /  34852.1 hPa West 18.5 mph /  29.8 km/h 18.5 mph /  29.8 km/h 71 % 0.0 in /  0 mm
21:38 17.3 °F /  -8.2 °C 12.0 °F /  -11.1 °C 1029.3 in /  34852.1 hPa West 24.1 mph /  38.8 km/h 24.1 mph /  38.8 km/h 71 % 0.0 in /  0 mm
21:40 17.3 °F /  -8.2 °C 12.0 °F /  -11.1 °C 1029.3 in /  34852.1 hPa WSW 24.1 mph /  38.8 km/h 24.1 mph /  38.8 km/h 71 % 0.0 in /  0 mm
21:45 17.4 °F /  -8.1 °C 11.8 °F /  -11.2 °C 1029.3 in /  34852.1 hPa WSW 22.2 mph /  35.7 km/h 22.2 mph /  35.7 km/h 70 % 0.0 in /  0 mm
21:50 17.5 °F /  -8.1 °C 11.9 °F /  -11.2 °C 1029.3 in /  34852.1 hPa WSW 22.2 mph /  35.7 km/h 22.2 mph /  35.7 km/h 70 % 0.0 in /  0 mm
21:51 17.5 °F /  -8.1 °C 11.9 °F /  -11.2 °C 1029.3 in /  34852.1 hPa WSW 22.2 mph /  35.7 km/h 22.2 mph /  35.7 km/h 70 % 0.0 in /  0 mm
21:56 17.5 °F /  -8.1 °C 11.9 °F /  -11.2 °C 1029.3 in /  34852.1 hPa West 17.7 mph /  28.5 km/h 17.7 mph /  28.5 km/h 70 % 0.0 in /  0 mm
21:57 17.5 °F /  -8.1 °C 11.9 °F /  -11.2 °C 1029.3 in /  34852.1 hPa West 20.9 mph /  33.6 km/h 20.9 mph /  33.6 km/h 70 % 0.0 in /  0 mm
22:02 17.5 °F /  -8.1 °C 11.9 °F /  -11.2 °C 1029.7 in /  34865.6 hPa WSW 18.5 mph /  29.8 km/h 18.5 mph /  29.8 km/h 70 % 0.0 in /  0 mm
22:03 17.5 °F /  -8.1 °C 11.9 °F /  -11.2 °C 1029.7 in /  34865.6 hPa West 20.9 mph /  33.6 km/h 20.9 mph /  33.6 km/h 70 % 0.0 in /  0 mm
22:08 17.4 °F /  -8.1 °C 12.1 °F /  -11.1 °C 1029.7 in /  34865.6 hPa West 20.4 mph /  32.8 km/h 20.4 mph /  32.8 km/h 71 % 0.0 in /  0 mm
22:13 17.3 °F /  -8.2 °C 12.0 °F /  -11.1 °C 1029.7 in /  34865.6 hPa WSW 20.4 mph /  32.8 km/h 20.4 mph /  32.8 km/h 71 % 0.0 in /  0 mm
22:14 17.3 °F /  -8.2 °C 12.0 °F /  -11.1 °C 1029.7 in /  34865.6 hPa WSW 20.4 mph /  32.8 km/h 20.4 mph /  32.8 km/h 71 % 0.0 in /  0 mm
22:18 17.3 °F /  -8.2 °C 12.0 °F /  -11.1 °C 1030.0 in /  34875.8 hPa West 16.7 mph /  26.9 km/h 16.7 mph /  26.9 km/h 71 % 0.0 in /  0 mm
22:19 17.3 °F /  -8.2 °C 12.2 °F /  -11 °C 1030.0 in /  34875.8 hPa WSW 13.0 mph /  20.9 km/h 13.0 mph /  20.9 km/h 72 % 0.0 in /  0 mm
22:24 17.3 °F /  -8.2 °C 11.9 °F /  -11.2 °C 1030.0 in /  34875.8 hPa West 14.8 mph /  23.8 km/h 14.8 mph /  23.8 km/h 71 % 0.0 in /  0 mm
22:26 17.3 °F /  -8.2 °C 11.9 °F /  -11.2 °C 1030.0 in /  34875.8 hPa West 14.8 mph /  23.8 km/h 14.8 mph /  23.8 km/h 71 % 0.0 in /  0 mm
22:28 17.3 °F /  -8.2 °C 11.8 °F /  -11.2 °C 1030.0 in /  34875.8 hPa NW 9.3 mph /  15 km/h 9.3 mph /  15 km/h 70 % 0.0 in /  0 mm
22:33 17.4 °F /  -8.1 °C 11.7 °F /  -11.3 °C 1029.7 in /  34865.6 hPa NNW 11.1 mph /  17.9 km/h 11.1 mph /  17.9 km/h 69 % 0.0 in /  0 mm
22:38 17.4 °F /  -8.1 °C 11.7 °F /  -11.3 °C 1029.7 in /  34865.6 hPa WNW 3.7 mph /  6 km/h 3.7 mph /  6 km/h 69 % 0.0 in /  0 mm
22:39 17.5 °F /  -8.1 °C 11.7 °F /  -11.3 °C 1030.0 in /  34875.8 hPa West 5.6 mph /  9 km/h 5.6 mph /  9 km/h 69 % 0.0 in /  0 mm
22:44 17.5 °F /  -8.1 °C 11.7 °F /  -11.3 °C 1030.0 in /  34875.8 hPa NW 7.4 mph /  11.9 km/h 7.4 mph /  11.9 km/h 69 % 0.0 in /  0 mm
22:45 17.5 °F /  -8.1 °C 11.5 °F /  -11.4 °C 1030.0 in /  34875.8 hPa NNW 9.7 mph /  15.6 km/h 9.7 mph /  15.6 km/h 68 % 0.0 in /  0 mm
22:46 17.5 °F /  -8.1 °C 11.5 °F /  -11.4 °C 1030.0 in /  34875.8 hPa NNW 9.3 mph /  15 km/h 9.3 mph /  15 km/h 68 % 0.0 in /  0 mm
22:51 17.6 °F /  -8 °C 11.6 °F /  -11.3 °C 1030.0 in /  34875.8 hPa West 7.4 mph /  11.9 km/h 7.4 mph /  11.9 km/h 68 % 0.0 in /  0 mm
22:52 17.6 °F /  -8 °C 11.6 °F /  -11.3 °C 1030.0 in /  34875.8 hPa West 7.4 mph /  11.9 km/h 7.4 mph /  11.9 km/h 68 % 0.0 in /  0 mm
22:57 17.6 °F /  -8 °C 11.4 °F /  -11.4 °C 1030.0 in /  34875.8 hPa WSW 13.0 mph /  20.9 km/h 13.0 mph /  20.9 km/h 67 % 0.0 in /  0 mm
23:02 17.6 °F /  -8 °C 11.4 °F /  -11.4 °C 1030.4 in /  34889.3 hPa NW 5.6 mph /  9 km/h 5.6 mph /  9 km/h 67 % 0.0 in /  0 mm
23:04 17.7 °F /  -7.9 °C 11.4 °F /  -11.4 °C 1030.4 in /  34889.3 hPa WSW 9.3 mph /  15 km/h 9.3 mph /  15 km/h 67 % 0.0 in /  0 mm
23:09 17.7 °F /  -7.9 °C 11.4 °F /  -11.4 °C 1030.4 in /  34889.3 hPa West 11.1 mph /  17.9 km/h 11.1 mph /  17.9 km/h 67 % 0.0 in /  0 mm
23:10 17.7 °F /  -7.9 °C 11.4 °F /  -11.4 °C 1030.4 in /  34889.3 hPa WSW 8.0 mph /  12.9 km/h 11.3 mph /  18.2 km/h 67 % 0.0 in /  0 mm
23:15 17.7 °F /  -7.9 °C 11.2 °F /  -11.6 °C 1030.4 in /  34889.3 hPa WSW 9.7 mph /  15.6 km/h 9.7 mph /  15.6 km/h 66 % 0.0 in /  0 mm
23:20 17.7 °F /  -7.9 °C 11.4 °F /  -11.4 °C 1030.4 in /  34889.3 hPa West 9.3 mph /  15 km/h 9.3 mph /  15 km/h 67 % 0.0 in /  0 mm
23:21 17.7 °F /  -7.9 °C 11.4 °F /  -11.4 °C 1030.4 in /  34889.3 hPa West 11.3 mph /  18.2 km/h 11.3 mph /  18.2 km/h 67 % 0.0 in /  0 mm
23:22 17.7 °F /  -7.9 °C 11.4 °F /  -11.4 °C 1030.4 in /  34889.3 hPa WSW 14.8 mph /  23.8 km/h 14.8 mph /  23.8 km/h 67 % 0.0 in /  0 mm
23:27 17.7 °F /  -7.9 °C 11.3 °F /  -11.5 °C 1030.4 in /  34889.3 hPa West 9.3 mph /  15 km/h 9.3 mph /  15 km/h 66 % 0.0 in /  0 mm
23:32 17.7 °F /  -7.9 °C 11.4 °F /  -11.4 °C 1030.4 in /  34889.3 hPa West 9.3 mph /  15 km/h 9.3 mph /  15 km/h 67 % 0.0 in /  0 mm
23:34 17.7 °F /  -7.9 °C 11.4 °F /  -11.4 °C 1030.4 in /  34889.3 hPa West 9.3 mph /  15 km/h 9.3 mph /  15 km/h 67 % 0.0 in /  0 mm
23:39 17.6 °F /  -8 °C 10.9 °F /  -11.7 °C 1030.4 in /  34889.3 hPa NW 9.3 mph /  15 km/h 9.3 mph /  15 km/h 65 % 0.0 in /  0 mm
23:40 17.6 °F /  -8 °C 10.7 °F /  -11.8 °C 1030.4 in /  34889.3 hPa WNW 9.3 mph /  15 km/h 9.3 mph /  15 km/h 64 % 0.0 in /  0 mm
23:45 17.7 °F /  -7.9 °C 10.3 °F /  -12.1 °C 1030.4 in /  34889.3 hPa WNW 9.3 mph /  15 km/h 9.3 mph /  15 km/h 62 % 0.0 in /  0 mm
23:50 17.8 °F /  -7.9 °C 10.6 °F /  -11.9 °C 1030.4 in /  34889.3 hPa NW 7.4 mph /  11.9 km/h 7.4 mph /  11.9 km/h 63 % 0.0 in /  0 mm
23:51 17.8 °F /  -7.9 °C 10.6 °F /  -11.9 °C 1030.4 in /  34889.3 hPa NW 7.4 mph /  11.9 km/h 7.4 mph /  11.9 km/h 63 % 0.0 in /  0 mm
23:53 17.7 °F /  -7.9 °C 10.6 °F /  -11.9 °C 1030.4 in /  34889.3 hPa West 11.3 mph /  18.2 km/h 11.3 mph /  18.2 km/h 63 % 0.0 in /  0 mm
23:57 17.7 °F /  -7.9 °C 10.3 °F /  -12.1 °C 1030.7 in /  34899.5 hPa West 9.3 mph /  15 km/h 9.3 mph /  15 km/h 62 % 0.0 in /  0 mm
Puerto Banus, Marbella
Elogios de Weather Underground - 2.5 mb

Guión original por  Jim McMurry - jmcmurry@mwt.net Adaptado para la plantilla por  Wim van der Kuil - Leuven-Template.eu

Usted encontrará nuestra información del tiempo también en:

Weather Underground

Iberian Peninsula Weather Network